GFSGBSN_prec_precacc24_114.txt.gz
Total_Precipitation_Accumulation
0.03 0.02 0.01 0.00 0.00 0.00 0.00 0.00 0.00 0.00 0.00 0.00 0.00 0.00 0.00 0.00 0.00 0.00 0.00 0.00 0.00 0.00 0.00 0.00 0.00 0.00 0.00 0.00 0.00 0.00 0.00 0.00 0.00 0.00 0.00 0.00 0.00 0.00 0.00 0.00 0.00 0.00 0.00 0.00 0.00 0.00 0.00
0.02 0.02 0.01 0.00 0.00 0.00 0.00 0.00 0.00 0.00 0.00 0.00 0.00 0.00 0.00 0.00 0.00 0.00 0.00 0.00 0.00 0.00 0.00 0.00 0.00 0.00 0.00 0.00 0.00 0.00 0.00 0.00 0.00 0.00 0.00 0.00 0.00 0.00 0.00 0.00 0.00 0.00 0.00 0.00 0.00 0.00 0.00
0.05 0.04 0.04 0.03 0.02 0.01 0.01 0.00 0.00 0.00 0.00 0.00 0.00 0.00 0.00 0.00 0.00 0.00 0.00 0.00 0.00 0.00 0.00 0.00 0.00 0.00 0.00 0.00 0.00 0.00 0.00 0.00 0.00 0.00 0.00 0.00 0.00 0.00 0.00 0.00 0.00 0.00 0.00 0.00 0.00 0.00 0.00
0.08 0.05 0.03 0.02 0.02 0.01 0.00 0.00 0.00 0.00 0.00 0.00 0.00 0.00 0.00 0.00 0.00 0.00 0.00 0.00 0.00 0.00 0.00 0.00 0.00 0.00 0.00 0.00 0.00 0.00 0.00 0.00 0.00 0.00 0.00 0.00 0.00 0.00 0.00 0.00 0.00 0.00 0.00 0.00 0.00 0.00 0.00
0.16 0.10 0.06 0.04 0.02 0.01 0.00 0.00 0.00 0.00 0.00 0.00 0.00 0.00 0.00 0.00 0.00 0.00 0.00 0.00 0.00 0.00 0.00 0.00 0.00 0.00 0.00 0.00 0.00 0.00 0.00 0.00 0.00 0.00 0.00 0.00 0.00 0.00 0.00 0.00 0.00 0.00 0.00 0.00 0.00 0.00 0.00
0.15 0.10 0.07 0.05 0.03 0.01 0.01 0.01 0.01 0.00 0.00 0.00 0.00 0.00 0.00 0.00 0.00 0.00 0.00 0.00 0.00 0.00 0.00 0.00 0.00 0.00 0.00 0.00 0.00 0.00 0.00 0.00 0.00 0.00 0.00 0.00 0.00 0.00 0.00 0.00 0.00 0.00 0.00 0.00 0.00 0.00 0.00
0.23 0.17 0.12 0.08 0.06 0.05 0.03 0.02 0.01 0.00 0.00 0.00 0.00 0.00 0.00 0.00 0.00 0.00 0.00 0.00 0.00 0.00 0.00 0.00 0.00 0.00 0.00 0.00 0.00 0.00 0.00 0.00 0.00 0.00 0.00 0.00 0.00 0.01 0.00 0.00 0.01 0.01 0.01 0.03 0.01 0.00 0.00
0.23 0.23 0.20 0.14 0.08 0.05 0.03 0.03 0.02 0.01 0.01 0.00 0.00 0.00 0.00 0.00 0.00 0.00 0.00 0.00 0.00 0.01 0.03 0.00 0.00 0.00 0.00 0.00 0.00 0.00 0.00 0.00 0.01 0.03 0.01 0.03 0.03 0.00 0.00 0.01 0.03 0.05 0.09 0.04 0.01 0.01 0.06
0.32 0.26 0.24 0.22 0.15 0.09 0.06 0.06 0.05 0.02 0.01 0.01 0.00 0.00 0.00 0.00 0.00 0.00 0.00 0.00 0.00 0.00 0.01 0.00 0.00 0.00 0.00 0.00 0.01 0.00 0.00 0.00 0.02 0.04 0.04 0.05 0.02 0.00 0.01 0.02 0.02 0.02 0.02 0.00 0.01 0.05 0.17
0.39 0.34 0.31 0.29 0.23 0.17 0.12 0.10 0.09 0.09 0.06 0.03 0.01 0.00 0.00 0.00 0.00 0.00 0.00 0.00 0.00 0.00 0.04 0.00 0.00 0.03 0.04 0.01 0.01 0.00 0.00 0.00 0.01 0.01 0.01 0.02 0.00 0.00 0.02 0.03 0.04 0.06 0.02 0.01 0.01 0.14 0.16
0.30 0.29 0.29 0.28 0.25 0.20 0.16 0.14 0.12 0.08 0.05 0.04 0.02 0.00 0.00 0.00 0.00 0.00 0.00 0.00 0.00 0.02 0.04 0.00 0.01 0.04 0.01 0.01 0.01 0.01 0.00 0.01 0.02 0.01 0.03 0.03 0.01 0.01 0.01 0.01 0.01 0.00 0.01 0.02 0.03 0.10 0.10
0.30 0.25 0.27 0.29 0.31 0.27 0.20 0.19 0.14 0.06 0.03 0.01 0.00 0.00 0.00 0.00 0.00 0.00 0.00 0.00 0.01 0.04 0.02 0.00 0.00 0.02 0.02 0.00 0.00 0.00 0.00 0.01 0.01 0.02 0.02 0.01 0.01 0.04 0.01 0.00 0.00 0.02 0.03 0.10 0.13 0.10 0.11
0.30 0.27 0.24 0.26 0.26 0.26 0.23 0.16 0.09 0.06 0.05 0.02 0.00 0.00 0.00 0.00 0.00 0.00 0.00 0.00 0.02 0.01 0.00 0.00 0.00 0.00 0.02 0.05 0.06 0.08 0.08 0.12 0.10 0.04 0.06 0.06 0.07 0.01 0.01 0.02 0.01 0.02 0.06 0.10 0.24 0.23 0.05
0.31 0.30 0.29 0.28 0.25 0.22 0.18 0.12 0.08 0.07 0.06 0.03 0.00 0.00 0.00 0.00 0.00 0.00 0.00 0.00 0.00 0.00 0.01 0.00 0.00 0.01 0.13 0.20 0.17 0.18 0.09 0.08 0.03 0.02 0.07 0.12 0.21 0.04 0.01 0.01 0.02 0.03 0.02 0.08 0.35 0.33 0.16
0.27 0.32 0.34 0.29 0.21 0.16 0.12 0.07 0.05 0.04 0.03 0.02 0.01 0.00 0.00 0.00 0.00 0.00 0.00 0.00 0.00 0.01 0.02 0.02 0.01 0.11 0.24 0.15 0.23 0.19 0.06 0.08 0.02 0.02 0.24 0.32 0.41 0.02 0.01 0.03 0.02 0.01 0.03 0.06 0.25 0.23 0.36
0.33 0.31 0.31 0.31 0.27 0.18 0.12 0.09 0.05 0.03 0.01 0.01 0.00 0.00 0.00 0.00 0.00 0.00 0.01 0.01 0.00 0.00 0.00 0.02 0.22 0.26 0.32 0.16 0.21 0.14 0.09 0.05 0.04 0.01 0.12 0.33 0.73 0.05 0.06 0.07 0.04 0.02 0.05 0.14 0.25 0.57 0.47
0.39 0.34 0.27 0.25 0.25 0.21 0.14 0.10 0.07 0.04 0.01 0.00 0.00 0.00 0.00 0.00 0.00 0.03 0.03 0.01 0.00 0.00 0.01 0.07 0.18 0.24 0.31 0.43 0.34 0.41 0.35 0.16 0.04 0.11 0.13 0.25 0.81 0.12 0.03 0.14 0.03 0.01 0.08 0.07 0.12 0.14 0.55
0.51 0.39 0.29 0.19 0.16 0.14 0.14 0.11 0.09 0.06 0.02 0.00 0.00 0.00 0.00 0.00 0.02 0.06 0.05 0.01 0.00 0.00 0.00 0.01 0.07 0.28 0.50 0.56 0.51 1.01 0.54 0.30 0.03 0.17 0.22 0.06 0.27 0.08 0.04 0.03 0.03 0.03 0.03 0.06 0.20 0.31 0.53
0.69 0.54 0.39 0.28 0.21 0.15 0.10 0.10 0.07 0.04 0.02 0.00 0.00 0.00 0.00 0.00 0.04 0.04 0.01 0.00 0.00 0.00 0.00 0.01 0.04 0.26 0.58 0.66 0.79 0.72 0.65 0.19 0.01 0.02 0.07 0.12 0.20 0.21 0.20 0.11 0.32 0.16 0.07 0.06 0.14 0.36 0.83
0.70 0.57 0.46 0.34 0.25 0.17 0.17 0.10 0.08 0.03 0.01 0.00 0.00 0.00 0.00 0.00 0.00 0.00 0.03 0.01 0.02 0.00 0.09 0.07 0.11 0.39 0.43 0.47 0.39 0.54 0.60 0.17 0.06 0.01 0.01 0.08 0.17 0.29 0.36 0.23 0.38 0.34 0.26 0.19 0.42 0.73 0.65
0.77 0.58 0.48 0.40 0.30 0.19 0.13 0.16 0.05 0.02 0.02 0.00 0.00 0.00 0.00 0.00 0.00 0.00 0.02 0.07 0.16 0.20 0.14 0.10 0.12 0.13 0.19 0.35 0.23 0.21 0.33 0.23 0.14 0.05 0.07 0.11 0.48 0.41 0.35 0.47 0.30 0.42 0.84 0.78 0.52 0.46 0.44
0.66 0.52 0.46 0.39 0.29 0.24 0.14 0.05 0.01 0.02 0.03 0.00 0.01 0.00 0.01 0.00 0.00 0.00 0.00 0.03 0.05 0.03 0.08 0.05 0.04 0.04 0.04 0.10 0.16 0.09 0.09 0.23 0.21 0.10 0.23 0.16 0.61 0.78 0.62 0.49 0.29 0.45 0.73 0.49 0.37 0.62 0.58
0.53 0.44 0.35 0.31 0.25 0.17 0.08 0.02 0.01 0.02 0.05 0.02 0.01 0.01 0.02 0.00 0.00 0.00 0.00 0.00 0.00 0.00 0.02 0.01 0.00 0.00 0.00 0.00 0.00 0.00 0.01 0.04 0.02 0.04 0.08 0.13 0.24 0.38 0.34 0.18 0.10 0.38 0.70 0.35 0.23 0.18 0.13
0.36 0.31 0.24 0.17 0.13 0.08 0.03 0.02 0.01 0.04 0.06 0.03 0.01 0.02 0.03 0.01 0.00 0.00 0.00 0.00 0.00 0.00 0.00 0.00 0.00 0.00 0.00 0.00 0.00 0.00 0.00 0.01 0.00 0.00 0.02 0.06 0.07 0.14 0.12 0.13 0.29 0.53 0.24 0.10 0.03 0.03 0.04
0.18 0.16 0.13 0.07 0.04 0.04 0.02 0.01 0.01 0.04 0.07 0.07 0.04 0.04 0.05 0.02 0.00 0.00 0.00 0.00 0.00 0.00 0.00 0.00 0.00 0.00 0.00 0.00 0.00 0.01 0.01 0.03 0.00 0.00 0.02 0.01 0.06 0.14 0.24 0.12 0.24 0.18 0.07 0.04 0.08 0.08 0.06
0.09 0.08 0.05 0.05 0.04 0.03 0.01 0.00 0.00 0.01 0.08 0.11 0.05 0.03 0.04 0.03 0.02 0.00 0.00 0.00 0.00 0.00 0.00 0.00 0.00 0.00 0.00 0.00 0.01 0.06 0.05 0.03 0.04 0.02 0.00 0.00 0.03 0.15 0.21 0.08 0.18 0.11 0.01 0.00 0.01 0.09 0.06
0.05 0.05 0.04 0.02 0.03 0.04 0.02 0.00 0.00 0.00 0.05 0.15 0.10 0.03 0.08 0.03 0.01 0.00 0.00 0.00 0.00 0.00 0.00 0.00 0.00 0.00 0.00 0.02 0.07 0.06 0.09 0.01 0.11 0.03 0.00 0.00 0.00 0.09 0.12 0.03 0.04 0.01 0.02 0.00 0.05 0.19 0.09
0.03 0.04 0.03 0.03 0.03 0.02 0.02 0.01 0.00 0.00 0.02 0.16 0.21 0.05 0.06 0.05 0.01 0.00 0.00 0.00 0.00 0.01 0.01 0.00 0.02 0.01 0.00 0.02 0.02 0.02 0.03 0.01 0.16 0.09 0.02 0.02 0.07 0.05 0.06 0.03 0.05 0.01 0.01 0.05 0.14 0.11 0.06
0.03 0.02 0.02 0.03 0.03 0.02 0.01 0.00 0.00 0.00 0.00 0.09 0.20 0.11 0.11 0.12 0.02 0.00 0.00 0.00 0.00 0.00 0.01 0.00 0.01 0.03 0.02 0.03 0.03 0.02 0.02 0.02 0.06 0.31 0.04 0.06 0.05 0.04 0.07 0.14 0.19 0.07 0.07 0.10 0.06 0.07 0.12

GFSGBSN_prec_precacc24_117.txt.gz
Total_Precipitation_Accumulation
0.03 0.02 0.01 0.00 0.00 0.00 0.00 0.00 0.00 0.00 0.00 0.00 0.00 0.00 0.00 0.00 0.00 0.00 0.00 0.00 0.00 0.00 0.00 0.00 0.00 0.00 0.00 0.00 0.00 0.00 0.00 0.00 0.00 0.00 0.00 0.00 0.00 0.00 0.00 0.00 0.00 0.00 0.00 0.00 0.00 0.00 0.00
0.03 0.02 0.01 0.00 0.00 0.00 0.00 0.00 0.00 0.00 0.00 0.00 0.00 0.00 0.00 0.00 0.00 0.00 0.00 0.00 0.00 0.00 0.00 0.00 0.00 0.00 0.00 0.00 0.00 0.00 0.00 0.00 0.00 0.00 0.00 0.00 0.00 0.00 0.00 0.00 0.00 0.00 0.00 0.00 0.00 0.00 0.00
0.18 0.07 0.04 0.02 0.02 0.01 0.01 0.00 0.00 0.00 0.00 0.00 0.00 0.00 0.00 0.00 0.00 0.00 0.00 0.00 0.00 0.00 0.00 0.00 0.00 0.00 0.00 0.00 0.00 0.00 0.00 0.00 0.00 0.00 0.00 0.00 0.00 0.00 0.00 0.00 0.00 0.00 0.00 0.00 0.00 0.00 0.00
0.19 0.15 0.12 0.12 0.05 0.01 0.00 0.00 0.00 0.00 0.00 0.00 0.00 0.00 0.00 0.00 0.00 0.00 0.00 0.00 0.00 0.00 0.00 0.00 0.00 0.00 0.00 0.00 0.00 0.00 0.00 0.00 0.00 0.00 0.00 0.00 0.00 0.00 0.00 0.00 0.00 0.00 0.00 0.00 0.00 0.00 0.00
0.21 0.17 0.13 0.10 0.07 0.03 0.01 0.00 0.00 0.00 0.00 0.00 0.00 0.00 0.00 0.00 0.00 0.00 0.00 0.00 0.00 0.00 0.00 0.00 0.00 0.00 0.00 0.00 0.00 0.00 0.00 0.00 0.00 0.00 0.00 0.00 0.00 0.00 0.00 0.00 0.00 0.00 0.00 0.00 0.00 0.00 0.00
0.21 0.18 0.14 0.10 0.07 0.04 0.02 0.02 0.01 0.01 0.01 0.00 0.00 0.00 0.00 0.00 0.00 0.00 0.00 0.00 0.00 0.00 0.00 0.00 0.00 0.00 0.00 0.00 0.00 0.00 0.00 0.00 0.00 0.00 0.00 0.00 0.00 0.00 0.00 0.00 0.00 0.00 0.00 0.00 0.00 0.00 0.00
0.24 0.21 0.20 0.19 0.12 0.06 0.04 0.03 0.02 0.01 0.01 0.01 0.00 0.00 0.00 0.00 0.00 0.00 0.00 0.00 0.00 0.00 0.00 0.00 0.00 0.00 0.00 0.00 0.00 0.00 0.00 0.00 0.00 0.00 0.00 0.00 0.00 0.01 0.00 0.00 0.01 0.01 0.01 0.03 0.01 0.00 0.00
0.23 0.23 0.22 0.20 0.13 0.08 0.04 0.03 0.03 0.04 0.04 0.02 0.01 0.00 0.00 0.00 0.00 0.00 0.00 0.00 0.00 0.00 0.01 0.00 0.00 0.00 0.00 0.00 0.00 0.00 0.00 0.00 0.01 0.02 0.01 0.03 0.03 0.00 0.00 0.01 0.03 0.05 0.09 0.04 0.01 0.01 0.06
0.32 0.26 0.24 0.26 0.24 0.18 0.11 0.08 0.06 0.04 0.04 0.04 0.02 0.00 0.00 0.00 0.00 0.00 0.00 0.00 0.00 0.00 0.00 0.00 0.00 0.00 0.00 0.00 0.01 0.00 0.00 0.00 0.02 0.04 0.03 0.05 0.02 0.00 0.01 0.02 0.02 0.02 0.02 0.00 0.01 0.05 0.17
0.40 0.34 0.31 0.30 0.25 0.21 0.20 0.18 0.14 0.10 0.08 0.05 0.02 0.01 0.00 0.00 0.00 0.00 0.00 0.00 0.00 0.00 0.01 0.00 0.00 0.03 0.04 0.01 0.01 0.00 0.00 0.00 0.01 0.01 0.01 0.01 0.00 0.00 0.02 0.03 0.04 0.06 0.02 0.01 0.01 0.14 0.16
0.30 0.29 0.29 0.28 0.26 0.22 0.23 0.23 0.18 0.10 0.06 0.05 0.02 0.01 0.00 0.00 0.00 0.00 0.00 0.00 0.00 0.01 0.01 0.00 0.00 0.04 0.01 0.01 0.01 0.01 0.00 0.01 0.02 0.01 0.03 0.03 0.01 0.01 0.01 0.01 0.01 0.00 0.01 0.02 0.03 0.10 0.10
0.30 0.25 0.27 0.29 0.31 0.30 0.27 0.28 0.23 0.11 0.05 0.02 0.01 0.02 0.01 0.00 0.00 0.00 0.00 0.00 0.01 0.03 0.01 0.00 0.00 0.01 0.02 0.00 0.00 0.00 0.00 0.01 0.01 0.02 0.02 0.01 0.01 0.04 0.01 0.00 0.00 0.02 0.03 0.10 0.13 0.10 0.11
0.31 0.27 0.25 0.26 0.27 0.28 0.30 0.25 0.15 0.10 0.08 0.07 0.04 0.02 0.01 0.00 0.00 0.00 0.00 0.00 0.02 0.01 0.00 0.00 0.00 0.00 0.02 0.05 0.06 0.08 0.08 0.12 0.10 0.04 0.06 0.06 0.07 0.01 0.01 0.02 0.01 0.02 0.06 0.10 0.24 0.23 0.05
0.31 0.30 0.29 0.28 0.26 0.24 0.22 0.20 0.16 0.11 0.08 0.07 0.07 0.03 0.01 0.00 0.00 0.00 0.00 0.00 0.01 0.00 0.01 0.00 0.00 0.00 0.11 0.19 0.17 0.18 0.09 0.08 0.03 0.02 0.06 0.11 0.21 0.04 0.01 0.01 0.02 0.03 0.02 0.09 0.39 0.35 0.19
0.27 0.32 0.34 0.30 0.22 0.17 0.16 0.15 0.12 0.10 0.08 0.09 0.08 0.06 0.03 0.01 0.00 0.00 0.00 0.00 0.00 0.00 0.02 0.00 0.00 0.06 0.14 0.14 0.23 0.19 0.06 0.08 0.02 0.02 0.24 0.32 0.41 0.02 0.01 0.03 0.02 0.01 0.03 0.07 0.30 0.25 0.45
0.33 0.32 0.31 0.31 0.28 0.21 0.16 0.17 0.14 0.11 0.10 0.08 0.08 0.06 0.02 0.01 0.00 0.00 0.01 0.00 0.00 0.00 0.00 0.00 0.07 0.10 0.18 0.15 0.21 0.13 0.07 0.04 0.04 0.01 0.12 0.34 0.75 0.05 0.06 0.07 0.04 0.02 0.06 0.16 0.27 0.59 0.49
0.40 0.34 0.27 0.25 0.27 0.25 0.19 0.17 0.16 0.09 0.12 0.12 0.10 0.12 0.04 0.01 0.01 0.01 0.01 0.01 0.00 0.00 0.00 0.01 0.04 0.06 0.15 0.40 0.33 0.36 0.32 0.14 0.04 0.11 0.13 0.25 0.82 0.12 0.03 0.14 0.03 0.01 0.08 0.10 0.15 0.16 0.59
0.51 0.39 0.29 0.20 0.19 0.19 0.20 0.19 0.16 0.12 0.07 0.14 0.22 0.10 0.02 0.01 0.02 0.01 0.01 0.01 0.00 0.00 0.00 0.00 0.02 0.07 0.28 0.47 0.48 0.97 0.51 0.28 0.03 0.17 0.22 0.06 0.29 0.09 0.04 0.03 0.03 0.03 0.03 0.08 0.24 0.33 0.57
0.69 0.55 0.40 0.31 0.25 0.23 0.17 0.18 0.13 0.12 0.08 0.08 0.14 0.09 0.01 0.01 0.01 0.00 0.00 0.00 0.00 0.00 0.00 0.01 0.02 0.15 0.34 0.54 0.74 0.68 0.61 0.19 0.01 0.01 0.06 0.13 0.22 0.24 0.18 0.10 0.32 0.16 0.07 0.07 0.17 0.41 0.90
0.73 0.62 0.50 0.40 0.31 0.27 0.26 0.16 0.14 0.10 0.10 0.07 0.05 0.05 0.02 0.01 0.00 0.00 0.00 0.00 0.00 0.00 0.08 0.05 0.09 0.22 0.24 0.33 0.35 0.51 0.51 0.15 0.05 0.00 0.01 0.08 0.20 0.35 0.38 0.28 0.43 0.38 0.33 0.24 0.46 0.81 0.71
0.86 0.68 0.56 0.49 0.39 0.30 0.22 0.24 0.20 0.15 0.09 0.09 0.07 0.01 0.00 0.01 0.00 0.00 0.00 0.01 0.03 0.02 0.09 0.08 0.07 0.07 0.11 0.20 0.16 0.19 0.31 0.21 0.13 0.04 0.07 0.12 0.51 0.47 0.41 0.53 0.35 0.47 0.94 0.81 0.53 0.47 0.45
0.82 0.67 0.61 0.54 0.40 0.31 0.20 0.16 0.20 0.19 0.13 0.07 0.04 0.00 0.00 0.00 0.01 0.01 0.00 0.00 0.00 0.00 0.02 0.02 0.01 0.01 0.02 0.04 0.10 0.08 0.08 0.23 0.20 0.10 0.23 0.17 0.63 0.81 0.65 0.55 0.33 0.52 0.87 0.53 0.39 0.65 0.61
0.88 0.70 0.57 0.46 0.37 0.28 0.23 0.13 0.10 0.11 0.10 0.06 0.02 0.01 0.01 0.01 0.00 0.01 0.01 0.00 0.00 0.00 0.00 0.00 0.00 0.00 0.00 0.00 0.00 0.00 0.01 0.04 0.02 0.04 0.08 0.13 0.26 0.41 0.35 0.21 0.12 0.42 0.79 0.46 0.26 0.20 0.16
0.75 0.65 0.52 0.41 0.32 0.28 0.22 0.16 0.08 0.06 0.06 0.04 0.01 0.01 0.03 0.01 0.00 0.00 0.00 0.00 0.00 0.00 0.00 0.00 0.00 0.00 0.00 0.00 0.00 0.00 0.00 0.01 0.00 0.00 0.02 0.06 0.09 0.18 0.17 0.19 0.36 0.57 0.27 0.14 0.04 0.05 0.06
0.50 0.49 0.43 0.37 0.31 0.30 0.21 0.14 0.08 0.04 0.04 0.07 0.04 0.03 0.04 0.01 0.00 0.00 0.00 0.00 0.00 0.00 0.00 0.00 0.00 0.00 0.00 0.00 0.00 0.01 0.01 0.03 0.00 0.00 0.02 0.01 0.08 0.19 0.33 0.16 0.29 0.21 0.08 0.05 0.09 0.10 0.07
0.37 0.34 0.29 0.29 0.22 0.22 0.15 0.08 0.06 0.02 0.04 0.08 0.04 0.03 0.03 0.03 0.02 0.00 0.00 0.00 0.00 0.00 0.00 0.00 0.00 0.00 0.00 0.00 0.01 0.06 0.05 0.03 0.04 0.02 0.00 0.00 0.03 0.20 0.29 0.12 0.20 0.13 0.04 0.01 0.01 0.11 0.07
0.23 0.23 0.25 0.18 0.12 0.11 0.08 0.05 0.02 0.00 0.02 0.10 0.09 0.02 0.05 0.03 0.01 0.00 0.00 0.00 0.00 0.00 0.00 0.00 0.00 0.00 0.00 0.02 0.07 0.06 0.09 0.01 0.11 0.03 0.00 0.00 0.01 0.13 0.21 0.06 0.05 0.02 0.04 0.01 0.06 0.20 0.09
0.14 0.14 0.10 0.07 0.05 0.04 0.04 0.02 0.00 0.00 0.00 0.08 0.16 0.03 0.03 0.04 0.01 0.00 0.00 0.00 0.00 0.01 0.01 0.00 0.02 0.01 0.00 0.02 0.02 0.02 0.03 0.01 0.17 0.10 0.03 0.02 0.08 0.08 0.12 0.09 0.08 0.03 0.03 0.06 0.15 0.12 0.06
0.07 0.03 0.02 0.03 0.03 0.02 0.01 0.00 0.00 0.00 0.00 0.04 0.16 0.10 0.08 0.07 0.02 0.00 0.00 0.00 0.00 0.00 0.01 0.00 0.01 0.03 0.02 0.03 0.02 0.01 0.02 0.02 0.07 0.37 0.04 0.05 0.04 0.07 0.10 0.14 0.16 0.09 0.09 0.11 0.06 0.07 0.11

GFSGBSN_prec_precacc24_123.txt.gz
Total_Precipitation_Accumulation
0.20 0.17 0.14 0.08 0.06 0.04 0.04 0.02 0.00 0.00 0.00 0.00 0.00 0.00 0.00 0.00 0.00 0.00 0.00 0.00 0.00 0.00 0.00 0.00 0.00 0.00 0.00 0.00 0.00 0.00 0.00 0.00 0.00 0.00 0.00 0.00 0.00 0.00 0.00 0.00 0.00 0.00 0.00 0.00 0.00 0.00 0.00
0.17 0.19 0.19 0.13 0.10 0.05 0.03 0.03 0.01 0.00 0.00 0.00 0.00 0.00 0.00 0.00 0.00 0.00 0.00 0.00 0.00 0.00 0.00 0.00 0.00 0.00 0.00 0.00 0.00 0.00 0.00 0.00 0.00 0.00 0.00 0.00 0.00 0.00 0.00 0.00 0.00 0.00 0.00 0.00 0.00 0.00 0.00
0.27 0.19 0.11 0.09 0.08 0.06 0.03 0.01 0.01 0.00 0.00 0.00 0.00 0.00 0.00 0.00 0.00 0.00 0.00 0.00 0.00 0.00 0.00 0.00 0.00 0.00 0.00 0.00 0.00 0.00 0.00 0.00 0.00 0.00 0.00 0.00 0.00 0.00 0.00 0.00 0.00 0.00 0.00 0.00 0.00 0.00 0.00
0.23 0.21 0.19 0.17 0.17 0.14 0.10 0.07 0.04 0.00 0.00 0.00 0.00 0.00 0.00 0.00 0.00 0.00 0.00 0.00 0.00 0.00 0.00 0.00 0.00 0.00 0.00 0.00 0.00 0.00 0.00 0.00 0.00 0.00 0.00 0.00 0.00 0.00 0.00 0.00 0.00 0.00 0.00 0.00 0.00 0.00 0.00
0.21 0.19 0.18 0.16 0.14 0.12 0.12 0.10 0.07 0.03 0.01 0.01 0.01 0.00 0.00 0.00 0.00 0.00 0.00 0.00 0.00 0.00 0.00 0.00 0.00 0.00 0.00 0.00 0.00 0.00 0.00 0.00 0.00 0.00 0.00 0.00 0.00 0.00 0.00 0.00 0.00 0.00 0.00 0.00 0.00 0.00 0.00
0.21 0.18 0.14 0.12 0.10 0.10 0.10 0.11 0.13 0.17 0.21 0.15 0.08 0.03 0.01 0.00 0.00 0.00 0.00 0.00 0.00 0.00 0.00 0.00 0.00 0.00 0.00 0.00 0.00 0.00 0.00 0.00 0.00 0.00 0.00 0.00 0.00 0.00 0.00 0.00 0.00 0.00 0.00 0.00 0.00 0.00 0.00
0.24 0.21 0.20 0.20 0.17 0.13 0.10 0.09 0.09 0.13 0.16 0.12 0.10 0.09 0.06 0.04 0.00 0.00 0.00 0.00 0.00 0.00 0.00 0.00 0.00 0.00 0.00 0.00 0.00 0.00 0.00 0.00 0.00 0.00 0.00 0.00 0.00 0.01 0.00 0.00 0.01 0.01 0.01 0.02 0.01 0.00 0.00
0.23 0.23 0.22 0.19 0.13 0.11 0.10 0.11 0.10 0.09 0.09 0.07 0.04 0.04 0.05 0.06 0.01 0.00 0.00 0.00 0.00 0.00 0.00 0.00 0.00 0.00 0.00 0.00 0.00 0.00 0.00 0.00 0.01 0.02 0.01 0.02 0.03 0.00 0.00 0.01 0.03 0.02 0.04 0.03 0.01 0.01 0.06
0.32 0.26 0.24 0.26 0.24 0.18 0.12 0.10 0.09 0.09 0.09 0.08 0.05 0.03 0.02 0.01 0.00 0.00 0.00 0.00 0.00 0.00 0.00 0.00 0.00 0.00 0.00 0.00 0.01 0.00 0.00 0.00 0.02 0.04 0.02 0.04 0.02 0.00 0.01 0.01 0.02 0.01 0.02 0.00 0.01 0.05 0.17
0.40 0.34 0.32 0.30 0.25 0.21 0.20 0.21 0.22 0.17 0.12 0.08 0.05 0.03 0.02 0.01 0.00 0.00 0.00 0.00 0.00 0.00 0.00 0.00 0.00 0.02 0.02 0.00 0.00 0.00 0.00 0.00 0.01 0.01 0.01 0.01 0.00 0.00 0.02 0.02 0.04 0.06 0.02 0.01 0.01 0.14 0.16
0.31 0.29 0.29 0.28 0.26 0.22 0.23 0.24 0.22 0.20 0.16 0.12 0.09 0.05 0.03 0.01 0.00 0.01 0.00 0.00 0.00 0.00 0.02 0.00 0.00 0.01 0.00 0.00 0.00 0.00 0.00 0.01 0.02 0.01 0.02 0.02 0.01 0.00 0.01 0.01 0.01 0.00 0.01 0.02 0.03 0.10 0.10
0.30 0.25 0.27 0.30 0.31 0.30 0.27 0.28 0.25 0.17 0.13 0.09 0.08 0.09 0.13 0.04 0.01 0.00 0.00 0.01 0.05 0.10 0.06 0.00 0.00 0.00 0.00 0.00 0.00 0.00 0.00 0.01 0.01 0.02 0.01 0.01 0.01 0.04 0.01 0.00 0.00 0.02 0.03 0.10 0.13 0.10 0.11
0.31 0.27 0.25 0.27 0.27 0.29 0.30 0.25 0.16 0.13 0.14 0.15 0.13 0.10 0.08 0.04 0.04 0.02 0.02 0.01 0.07 0.07 0.01 0.00 0.00 0.00 0.00 0.01 0.01 0.04 0.05 0.12 0.10 0.03 0.00 0.01 0.05 0.01 0.01 0.01 0.01 0.02 0.06 0.10 0.23 0.24 0.06
0.31 0.30 0.30 0.29 0.26 0.24 0.23 0.20 0.17 0.15 0.14 0.15 0.17 0.15 0.13 0.07 0.05 0.05 0.07 0.09 0.13 0.02 0.00 0.00 0.00 0.00 0.01 0.03 0.03 0.07 0.06 0.08 0.03 0.02 0.05 0.07 0.18 0.03 0.01 0.01 0.02 0.03 0.02 0.08 0.39 0.35 0.19
0.27 0.32 0.34 0.30 0.23 0.18 0.17 0.16 0.15 0.17 0.16 0.19 0.24 0.16 0.10 0.08 0.10 0.17 0.23 0.20 0.05 0.00 0.00 0.00 0.00 0.00 0.01 0.01 0.03 0.07 0.05 0.08 0.02 0.02 0.22 0.31 0.40 0.02 0.01 0.03 0.02 0.01 0.03 0.06 0.32 0.26 0.49
0.33 0.32 0.32 0.31 0.29 0.21 0.17 0.18 0.18 0.22 0.22 0.20 0.15 0.15 0.11 0.10 0.13 0.19 0.27 0.22 0.06 0.00 0.00 0.00 0.00 0.01 0.04 0.03 0.04 0.01 0.05 0.04 0.04 0.01 0.12 0.34 0.74 0.05 0.06 0.05 0.04 0.02 0.06 0.17 0.35 0.66 0.55
0.39 0.35 0.28 0.26 0.27 0.25 0.20 0.18 0.21 0.19 0.29 0.21 0.15 0.25 0.24 0.18 0.25 0.38 0.26 0.06 0.01 0.00 0.00 0.00 0.00 0.00 0.02 0.13 0.06 0.17 0.15 0.12 0.04 0.11 0.13 0.25 0.82 0.12 0.03 0.12 0.02 0.02 0.09 0.13 0.22 0.19 0.65
0.51 0.40 0.30 0.21 0.20 0.19 0.21 0.21 0.22 0.24 0.22 0.26 0.27 0.29 0.23 0.29 0.37 0.27 0.08 0.03 0.01 0.00 0.00 0.00 0.00 0.01 0.04 0.08 0.08 0.29 0.26 0.20 0.02 0.17 0.21 0.04 0.29 0.08 0.03 0.02 0.02 0.03 0.04 0.12 0.38 0.41 0.72
0.69 0.56 0.40 0.31 0.26 0.23 0.18 0.20 0.20 0.26 0.15 0.13 0.26 0.44 0.32 0.28 0.23 0.13 0.03 0.01 0.01 0.01 0.01 0.01 0.01 0.01 0.03 0.09 0.17 0.13 0.20 0.12 0.00 0.00 0.03 0.10 0.18 0.21 0.08 0.07 0.31 0.15 0.07 0.09 0.24 0.51 1.01
0.73 0.62 0.51 0.40 0.31 0.28 0.28 0.20 0.21 0.21 0.15 0.07 0.15 0.40 0.60 0.43 0.08 0.02 0.02 0.02 0.01 0.01 0.01 0.01 0.01 0.01 0.02 0.03 0.02 0.04 0.18 0.10 0.00 0.00 0.00 0.07 0.17 0.31 0.34 0.27 0.44 0.37 0.32 0.24 0.57 0.95 0.79
0.85 0.68 0.58 0.51 0.42 0.31 0.26 0.30 0.29 0.24 0.14 0.10 0.12 0.10 0.16 0.20 0.09 0.02 0.01 0.01 0.01 0.01 0.01 0.01 0.01 0.02 0.02 0.04 0.01 0.02 0.05 0.03 0.00 0.00 0.00 0.09 0.49 0.41 0.41 0.57 0.39 0.48 0.94 0.81 0.55 0.51 0.48
0.86 0.70 0.65 0.58 0.46 0.40 0.27 0.24 0.29 0.27 0.17 0.09 0.08 0.04 0.01 0.00 0.01 0.02 0.01 0.01 0.01 0.01 0.01 0.01 0.02 0.01 0.01 0.02 0.03 0.03 0.02 0.06 0.03 0.03 0.10 0.12 0.63 0.82 0.65 0.59 0.36 0.54 0.90 0.55 0.40 0.67 0.62
0.93 0.75 0.61 0.51 0.43 0.37 0.40 0.27 0.22 0.21 0.16 0.11 0.03 0.00 0.01 0.02 0.02 0.03 0.03 0.00 0.00 0.01 0.01 0.01 0.01 0.01 0.00 0.00 0.00 0.00 0.01 0.04 0.01 0.03 0.07 0.13 0.27 0.42 0.37 0.25 0.16 0.48 0.82 0.49 0.29 0.22 0.18
1.01 0.80 0.59 0.48 0.41 0.36 0.34 0.38 0.31 0.20 0.07 0.04 0.01 0.01 0.04 0.06 0.01 0.01 0.01 0.01 0.01 0.01 0.01 0.00 0.00 0.00 0.00 0.00 0.00 0.00 0.00 0.01 0.00 0.00 0.02 0.06 0.09 0.18 0.19 0.26 0.48 0.62 0.28 0.15 0.04 0.05 0.07
0.87 0.82 0.55 0.48 0.42 0.42 0.31 0.35 0.57 0.30 0.09 0.03 0.02 0.01 0.04 0.04 0.01 0.02 0.03 0.02 0.01 0.01 0.00 0.00 0.00 0.00 0.00 0.00 0.00 0.01 0.01 0.03 0.01 0.00 0.02 0.01 0.08 0.20 0.36 0.25 0.37 0.26 0.09 0.05 0.09 0.10 0.08
0.80 0.81 0.53 0.47 0.39 0.42 0.42 0.37 0.52 0.47 0.13 0.03 0.03 0.01 0.02 0.04 0.06 0.01 0.01 0.01 0.01 0.00 0.00 0.00 0.00 0.00 0.00 0.00 0.01 0.05 0.04 0.03 0.05 0.05 0.01 0.01 0.04 0.22 0.31 0.18 0.28 0.15 0.06 0.03 0.03 0.12 0.08
0.94 0.78 0.57 0.52 0.44 0.45 0.44 0.38 0.30 0.31 0.12 0.05 0.06 0.00 0.02 0.04 0.03 0.01 0.03 0.02 0.01 0.01 0.00 0.00 0.00 0.00 0.00 0.01 0.04 0.04 0.07 0.00 0.11 0.05 0.04 0.02 0.02 0.15 0.23 0.12 0.09 0.04 0.08 0.07 0.12 0.21 0.09
0.85 0.74 0.50 0.44 0.38 0.34 0.34 0.25 0.17 0.13 0.05 0.03 0.07 0.01 0.02 0.04 0.05 0.03 0.01 0.01 0.01 0.01 0.01 0.00 0.01 0.01 0.00 0.01 0.01 0.00 0.00 0.00 0.15 0.09 0.02 0.01 0.08 0.08 0.14 0.14 0.13 0.07 0.16 0.17 0.15 0.11 0.06
0.50 0.49 0.37 0.32 0.33 0.28 0.18 0.10 0.06 0.03 0.01 0.00 0.05 0.02 0.02 0.04 0.04 0.01 0.00 0.00 0.00 0.00 0.00 0.00 0.01 0.03 0.01 0.01 0.01 0.00 0.00 0.01 0.07 0.33 0.03 0.03 0.03 0.06 0.11 0.14 0.16 0.15 0.18 0.14 0.05 0.06 0.07

GFSGBSN_prec_precacc24_126.txt.gz
Total_Precipitation_Accumulation
0.25 0.22 0.19 0.16 0.13 0.11 0.11 0.11 0.09 0.04 0.01 0.00 0.00 0.00 0.00 0.00 0.00 0.00 0.00 0.00 0.00 0.00 0.00 0.00 0.00 0.00 0.00 0.00 0.00 0.00 0.00 0.00 0.00 0.00 0.00 0.00 0.00 0.00 0.00 0.00 0.00 0.00 0.00 0.00 0.00 0.00 0.00
0.19 0.22 0.22 0.17 0.12 0.07 0.05 0.05 0.04 0.03 0.01 0.00 0.00 0.00 0.00 0.00 0.00 0.00 0.00 0.00 0.00 0.00 0.00 0.00 0.00 0.00 0.00 0.00 0.00 0.00 0.00 0.00 0.00 0.00 0.00 0.00 0.00 0.00 0.00 0.00 0.00 0.00 0.00 0.00 0.00 0.00 0.00
0.27 0.21 0.15 0.12 0.10 0.07 0.04 0.02 0.02 0.03 0.03 0.01 0.00 0.00 0.00 0.00 0.00 0.00 0.00 0.00 0.00 0.00 0.00 0.00 0.00 0.00 0.00 0.00 0.00 0.00 0.00 0.00 0.00 0.00 0.00 0.00 0.00 0.00 0.00 0.00 0.00 0.00 0.00 0.00 0.00 0.00 0.00
0.23 0.21 0.19 0.20 0.20 0.16 0.12 0.12 0.10 0.06 0.04 0.02 0.00 0.00 0.00 0.00 0.00 0.00 0.00 0.00 0.00 0.00 0.00 0.00 0.00 0.00 0.00 0.00 0.00 0.00 0.00 0.00 0.00 0.00 0.00 0.00 0.00 0.00 0.00 0.00 0.00 0.00 0.00 0.00 0.00 0.00 0.00
0.21 0.19 0.17 0.16 0.14 0.13 0.13 0.11 0.11 0.13 0.11 0.09 0.06 0.02 0.00 0.00 0.00 0.00 0.00 0.00 0.00 0.00 0.00 0.00 0.00 0.00 0.00 0.00 0.00 0.00 0.00 0.00 0.00 0.00 0.00 0.00 0.00 0.00 0.00 0.00 0.00 0.00 0.00 0.00 0.00 0.00 0.00
0.19 0.17 0.14 0.12 0.10 0.10 0.10 0.12 0.14 0.20 0.26 0.20 0.16 0.14 0.06 0.02 0.01 0.00 0.00 0.00 0.00 0.00 0.00 0.00 0.00 0.00 0.00 0.00 0.00 0.00 0.00 0.00 0.00 0.00 0.00 0.00 0.00 0.00 0.00 0.00 0.00 0.00 0.00 0.00 0.00 0.00 0.00
0.21 0.20 0.19 0.20 0.17 0.13 0.10 0.09 0.09 0.13 0.19 0.16 0.16 0.17 0.15 0.10 0.05 0.01 0.00 0.00 0.00 0.00 0.00 0.00 0.00 0.00 0.00 0.00 0.00 0.00 0.00 0.00 0.00 0.00 0.00 0.00 0.00 0.01 0.00 0.00 0.01 0.01 0.01 0.01 0.00 0.00 0.00
0.20 0.21 0.21 0.19 0.13 0.11 0.10 0.11 0.10 0.10 0.09 0.08 0.07 0.06 0.07 0.08 0.05 0.01 0.00 0.00 0.00 0.00 0.00 0.00 0.00 0.00 0.00 0.00 0.00 0.00 0.00 0.00 0.01 0.02 0.01 0.02 0.02 0.00 0.00 0.01 0.03 0.02 0.01 0.01 0.01 0.01 0.06
0.30 0.24 0.23 0.25 0.24 0.18 0.12 0.10 0.09 0.09 0.10 0.10 0.09 0.06 0.04 0.02 0.01 0.00 0.00 0.00 0.00 0.00 0.00 0.00 0.00 0.00 0.00 0.00 0.00 0.00 0.00 0.00 0.02 0.04 0.02 0.03 0.01 0.00 0.01 0.01 0.02 0.01 0.01 0.00 0.01 0.03 0.11
0.37 0.33 0.31 0.29 0.25 0.21 0.20 0.21 0.22 0.17 0.13 0.09 0.07 0.09 0.08 0.03 0.01 0.00 0.00 0.00 0.00 0.00 0.00 0.00 0.00 0.00 0.00 0.00 0.00 0.00 0.00 0.00 0.00 0.01 0.01 0.01 0.00 0.00 0.02 0.02 0.04 0.06 0.02 0.01 0.00 0.06 0.11
0.29 0.28 0.29 0.28 0.26 0.22 0.23 0.24 0.22 0.20 0.16 0.12 0.10 0.06 0.04 0.02 0.01 0.01 0.00 0.00 0.00 0.01 0.05 0.00 0.00 0.00 0.00 0.00 0.00 0.00 0.00 0.00 0.02 0.01 0.02 0.01 0.00 0.00 0.01 0.01 0.01 0.00 0.01 0.02 0.02 0.09 0.09
0.29 0.25 0.27 0.30 0.31 0.30 0.27 0.29 0.25 0.17 0.13 0.09 0.09 0.10 0.13 0.05 0.01 0.00 0.00 0.01 0.05 0.13 0.11 0.00 0.00 0.00 0.00 0.00 0.00 0.00 0.00 0.00 0.00 0.02 0.01 0.00 0.00 0.03 0.00 0.00 0.00 0.02 0.02 0.10 0.13 0.10 0.09
0.30 0.27 0.25 0.27 0.27 0.29 0.30 0.25 0.16 0.13 0.14 0.15 0.15 0.12 0.08 0.04 0.06 0.03 0.03 0.05 0.22 0.20 0.02 0.00 0.00 0.00 0.00 0.00 0.00 0.00 0.00 0.02 0.04 0.02 0.00 0.00 0.00 0.01 0.01 0.01 0.01 0.02 0.05 0.09 0.22 0.24 0.06
0.31 0.30 0.30 0.29 0.26 0.24 0.23 0.20 0.17 0.15 0.14 0.15 0.19 0.16 0.14 0.07 0.06 0.06 0.08 0.15 0.24 0.05 0.00 0.00 0.00 0.00 0.00 0.00 0.00 0.00 0.00 0.05 0.03 0.02 0.03 0.01 0.02 0.01 0.00 0.01 0.02 0.03 0.02 0.07 0.37 0.34 0.19
0.27 0.32 0.34 0.30 0.23 0.18 0.17 0.16 0.15 0.18 0.16 0.20 0.28 0.18 0.11 0.08 0.11 0.18 0.27 0.30 0.08 0.00 0.00 0.00 0.00 0.00 0.00 0.00 0.00 0.00 0.01 0.06 0.02 0.02 0.13 0.17 0.19 0.02 0.01 0.03 0.02 0.01 0.03 0.05 0.27 0.23 0.40
0.33 0.32 0.32 0.31 0.29 0.22 0.17 0.19 0.18 0.23 0.23 0.21 0.16 0.15 0.11 0.10 0.13 0.20 0.33 0.27 0.07 0.01 0.00 0.00 0.00 0.00 0.00 0.00 0.00 0.00 0.02 0.03 0.04 0.00 0.09 0.26 0.68 0.04 0.05 0.05 0.03 0.02 0.05 0.12 0.30 0.60 0.48
0.39 0.34 0.28 0.26 0.28 0.26 0.20 0.19 0.22 0.20 0.31 0.22 0.16 0.26 0.25 0.18 0.27 0.44 0.30 0.07 0.01 0.00 0.00 0.00 0.01 0.01 0.01 0.02 0.01 0.02 0.02 0.05 0.03 0.11 0.13 0.22 0.79 0.12 0.02 0.03 0.01 0.01 0.06 0.12 0.21 0.20 0.65
0.50 0.39 0.30 0.21 0.20 0.20 0.22 0.22 0.23 0.25 0.25 0.28 0.28 0.31 0.25 0.30 0.41 0.31 0.08 0.03 0.01 0.00 0.00 0.00 0.00 0.00 0.01 0.01 0.01 0.02 0.02 0.11 0.02 0.15 0.19 0.04 0.27 0.06 0.03 0.02 0.02 0.02 0.03 0.11 0.35 0.41 0.76
0.68 0.56 0.41 0.31 0.26 0.24 0.20 0.22 0.22 0.28 0.17 0.14 0.27 0.47 0.38 0.29 0.25 0.14 0.03 0.02 0.02 0.01 0.01 0.01 0.01 0.01 0.00 0.01 0.02 0.00 0.00 0.00 0.00 0.00 0.02 0.09 0.16 0.13 0.07 0.07 0.26 0.13 0.04 0.08 0.22 0.48 1.00
0.72 0.62 0.51 0.40 0.32 0.29 0.30 0.22 0.24 0.23 0.18 0.09 0.17 0.44 0.75 0.55 0.09 0.02 0.03 0.02 0.02 0.01 0.01 0.01 0.01 0.00 0.01 0.01 0.01 0.00 0.00 0.01 0.00 0.00 0.00 0.06 0.14 0.27 0.34 0.31 0.40 0.28 0.24 0.20 0.55 0.95 0.82
0.85 0.68 0.58 0.51 0.41 0.33 0.28 0.32 0.32 0.28 0.18 0.14 0.14 0.11 0.19 0.25 0.09 0.02 0.02 0.02 0.02 0.01 0.01 0.01 0.01 0.02 0.01 0.02 0.00 0.00 0.00 0.00 0.00 0.00 0.00 0.04 0.34 0.37 0.38 0.57 0.38 0.43 0.89 0.78 0.52 0.51 0.50
0.86 0.69 0.64 0.58 0.46 0.41 0.28 0.26 0.32 0.31 0.25 0.17 0.13 0.05 0.01 0.00 0.01 0.02 0.02 0.01 0.01 0.01 0.01 0.01 0.02 0.01 0.01 0.02 0.01 0.01 0.01 0.03 0.00 0.00 0.01 0.10 0.57 0.66 0.55 0.58 0.34 0.54 0.89 0.54 0.40 0.67 0.62
0.92 0.74 0.61 0.51 0.43 0.38 0.41 0.29 0.25 0.24 0.26 0.23 0.08 0.00 0.02 0.02 0.02 0.04 0.03 0.01 0.01 0.01 0.01 0.01 0.01 0.01 0.01 0.00 0.00 0.00 0.00 0.03 0.00 0.00 0.01 0.10 0.27 0.41 0.36 0.25 0.16 0.50 0.82 0.49 0.29 0.22 0.18
1.00 0.79 0.60 0.48 0.42 0.36 0.35 0.39 0.33 0.22 0.11 0.10 0.04 0.01 0.04 0.07 0.02 0.02 0.01 0.01 0.01 0.01 0.01 0.01 0.00 0.00 0.00 0.00 0.00 0.00 0.00 0.01 0.00 0.00 0.01 0.06 0.09 0.19 0.20 0.28 0.46 0.61 0.28 0.14 0.04 0.05 0.07
0.86 0.81 0.55 0.48 0.43 0.42 0.31 0.36 0.58 0.32 0.12 0.07 0.05 0.02 0.04 0.04 0.01 0.02 0.03 0.02 0.01 0.01 0.01 0.00 0.00 0.00 0.00 0.00 0.00 0.00 0.00 0.01 0.00 0.00 0.02 0.01 0.09 0.20 0.37 0.26 0.37 0.25 0.09 0.05 0.07 0.09 0.08
0.80 0.82 0.54 0.47 0.39 0.42 0.42 0.37 0.56 0.55 0.18 0.05 0.05 0.03 0.02 0.06 0.05 0.01 0.01 0.01 0.01 0.01 0.01 0.00 0.00 0.00 0.00 0.00 0.00 0.03 0.03 0.01 0.04 0.05 0.02 0.01 0.05 0.24 0.32 0.19 0.27 0.13 0.06 0.03 0.03 0.10 0.07
0.99 0.90 0.62 0.53 0.44 0.46 0.44 0.38 0.33 0.56 0.28 0.07 0.04 0.02 0.04 0.08 0.03 0.01 0.03 0.02 0.01 0.01 0.00 0.00 0.00 0.00 0.00 0.00 0.01 0.01 0.03 0.00 0.10 0.04 0.05 0.03 0.03 0.16 0.24 0.12 0.09 0.04 0.08 0.07 0.13 0.17 0.08
1.03 0.92 0.57 0.47 0.42 0.36 0.35 0.28 0.28 0.48 0.42 0.15 0.12 0.03 0.04 0.07 0.06 0.02 0.01 0.01 0.01 0.00 0.01 0.00 0.00 0.00 0.00 0.00 0.00 0.00 0.00 0.00 0.14 0.09 0.02 0.01 0.05 0.08 0.14 0.14 0.14 0.07 0.16 0.17 0.13 0.08 0.05
0.75 0.73 0.44 0.36 0.39 0.32 0.21 0.22 0.35 0.45 0.45 0.23 0.16 0.05 0.02 0.04 0.04 0.01 0.00 0.00 0.00 0.00 0.00 0.00 0.01 0.02 0.01 0.00 0.00 0.00 0.00 0.00 0.06 0.24 0.03 0.03 0.02 0.07 0.11 0.14 0.15 0.15 0.19 0.14 0.05 0.06 0.07

GFSGBSN_prec_precacc24_129.txt.gz
Total_Precipitation_Accumulation
0.27 0.24 0.21 0.17 0.15 0.13 0.14 0.14 0.12 0.08 0.04 0.02 0.01 0.00 0.00 0.00 0.00 0.00 0.00 0.00 0.00 0.00 0.00 0.00 0.00 0.00 0.00 0.00 0.00 0.00 0.00 0.00 0.00 0.00 0.00 0.00 0.00 0.00 0.00 0.00 0.00 0.00 0.00 0.00 0.00 0.00 0.00
0.19 0.23 0.23 0.20 0.17 0.09 0.05 0.05 0.05 0.04 0.02 0.01 0.01 0.00 0.00 0.00 0.00 0.00 0.00 0.00 0.00 0.00 0.00 0.00 0.00 0.00 0.00 0.00 0.00 0.00 0.00 0.00 0.00 0.00 0.00 0.00 0.00 0.00 0.00 0.00 0.00 0.00 0.00 0.00 0.00 0.00 0.00
0.26 0.20 0.16 0.14 0.12 0.09 0.06 0.03 0.03 0.04 0.04 0.03 0.02 0.00 0.00 0.00 0.00 0.00 0.00 0.00 0.00 0.00 0.00 0.00 0.00 0.00 0.00 0.00 0.00 0.00 0.00 0.00 0.00 0.00 0.00 0.00 0.00 0.00 0.00 0.00 0.00 0.00 0.00 0.00 0.00 0.00 0.00
0.22 0.21 0.19 0.20 0.21 0.19 0.16 0.15 0.13 0.11 0.09 0.06 0.03 0.01 0.00 0.00 0.00 0.00 0.00 0.00 0.00 0.00 0.00 0.00 0.00 0.00 0.00 0.00 0.00 0.00 0.00 0.00 0.00 0.00 0.00 0.00 0.00 0.00 0.00 0.00 0.00 0.00 0.00 0.00 0.00 0.00 0.00
0.19 0.18 0.17 0.15 0.14 0.14 0.14 0.12 0.13 0.17 0.19 0.18 0.15 0.08 0.04 0.02 0.00 0.00 0.00 0.00 0.00 0.00 0.00 0.00 0.00 0.00 0.00 0.00 0.00 0.00 0.00 0.00 0.00 0.00 0.00 0.00 0.00 0.00 0.00 0.00 0.00 0.00 0.00 0.00 0.00 0.00 0.00
0.17 0.16 0.12 0.10 0.09 0.10 0.10 0.12 0.14 0.20 0.28 0.26 0.24 0.23 0.16 0.09 0.04 0.01 0.00 0.00 0.00 0.00 0.00 0.00 0.00 0.00 0.00 0.00 0.00 0.00 0.00 0.00 0.00 0.00 0.00 0.00 0.00 0.00 0.00 0.00 0.00 0.00 0.00 0.00 0.00 0.00 0.00
0.18 0.18 0.18 0.19 0.17 0.13 0.10 0.09 0.09 0.13 0.19 0.19 0.20 0.21 0.23 0.17 0.11 0.07 0.02 0.00 0.00 0.00 0.00 0.00 0.00 0.00 0.00 0.00 0.00 0.00 0.00 0.00 0.00 0.00 0.00 0.00 0.00 0.00 0.00 0.00 0.01 0.01 0.01 0.01 0.00 0.00 0.00
0.16 0.19 0.19 0.18 0.13 0.11 0.10 0.11 0.10 0.10 0.09 0.08 0.07 0.08 0.10 0.12 0.10 0.03 0.00 0.00 0.00 0.00 0.00 0.00 0.00 0.00 0.00 0.00 0.00 0.00 0.00 0.00 0.00 0.00 0.00 0.01 0.01 0.00 0.00 0.00 0.03 0.02 0.01 0.01 0.01 0.00 0.02
0.26 0.21 0.21 0.24 0.23 0.18 0.12 0.10 0.09 0.09 0.10 0.10 0.10 0.09 0.06 0.03 0.01 0.00 0.00 0.00 0.00 0.00 0.00 0.00 0.00 0.00 0.00 0.00 0.00 0.00 0.00 0.00 0.00 0.00 0.00 0.00 0.00 0.00 0.00 0.00 0.01 0.01 0.01 0.00 0.01 0.01 0.05
0.34 0.29 0.28 0.27 0.24 0.20 0.20 0.21 0.22 0.17 0.13 0.09 0.08 0.12 0.11 0.05 0.01 0.00 0.00 0.00 0.00 0.00 0.00 0.00 0.00 0.00 0.00 0.00 0.00 0.00 0.00 0.00 0.00 0.00 0.00 0.00 0.00 0.00 0.01 0.00 0.02 0.06 0.02 0.01 0.00 0.01 0.02
0.22 0.23 0.25 0.27 0.25 0.22 0.23 0.24 0.22 0.20 0.16 0.12 0.11 0.08 0.06 0.07 0.01 0.01 0.00 0.00 0.00 0.01 0.06 0.00 0.00 0.00 0.00 0.00 0.00 0.00 0.00 0.00 0.00 0.00 0.00 0.00 0.00 0.00 0.00 0.00 0.00 0.00 0.01 0.01 0.00 0.02 0.07
0.20 0.19 0.23 0.28 0.29 0.29 0.27 0.29 0.25 0.17 0.13 0.09 0.09 0.11 0.14 0.06 0.01 0.00 0.00 0.01 0.05 0.14 0.12 0.00 0.00 0.00 0.00 0.00 0.00 0.00 0.00 0.00 0.00 0.00 0.00 0.00 0.00 0.00 0.00 0.00 0.00 0.01 0.01 0.04 0.07 0.06 0.08
0.22 0.24 0.23 0.26 0.26 0.28 0.30 0.25 0.16 0.13 0.14 0.15 0.15 0.12 0.09 0.04 0.06 0.03 0.03 0.06 0.24 0.22 0.02 0.00 0.00 0.00 0.00 0.00 0.00 0.00 0.00 0.00 0.01 0.02 0.00 0.00 0.00 0.00 0.00 0.00 0.00 0.01 0.04 0.05 0.14 0.17 0.05
0.27 0.28 0.28 0.29 0.26 0.24 0.23 0.20 0.17 0.15 0.14 0.15 0.19 0.16 0.14 0.07 0.06 0.06 0.10 0.17 0.29 0.06 0.00 0.00 0.00 0.00 0.00 0.00 0.00 0.00 0.00 0.01 0.00 0.02 0.03 0.01 0.00 0.00 0.00 0.00 0.01 0.02 0.00 0.06 0.36 0.34 0.19
0.26 0.31 0.34 0.30 0.23 0.19 0.17 0.16 0.15 0.18 0.17 0.21 0.29 0.19 0.12 0.08 0.11 0.19 0.29 0.32 0.09 0.00 0.00 0.00 0.01 0.00 0.00 0.00 0.00 0.00 0.00 0.00 0.01 0.02 0.13 0.04 0.02 0.00 0.01 0.02 0.02 0.01 0.02 0.04 0.24 0.17 0.35
0.32 0.31 0.32 0.32 0.29 0.22 0.18 0.19 0.18 0.23 0.25 0.22 0.16 0.16 0.12 0.10 0.14 0.20 0.34 0.28 0.07 0.01 0.00 0.00 0.01 0.00 0.00 0.00 0.00 0.00 0.00 0.00 0.00 0.00 0.08 0.18 0.31 0.01 0.05 0.04 0.03 0.02 0.05 0.12 0.27 0.36 0.19
0.38 0.33 0.28 0.26 0.29 0.26 0.21 0.19 0.22 0.20 0.33 0.22 0.16 0.26 0.25 0.18 0.28 0.45 0.30 0.07 0.01 0.00 0.00 0.00 0.01 0.01 0.01 0.01 0.01 0.01 0.00 0.00 0.00 0.00 0.08 0.10 0.48 0.08 0.02 0.02 0.01 0.01 0.03 0.10 0.18 0.14 0.37
0.49 0.39 0.30 0.22 0.21 0.21 0.23 0.22 0.24 0.25 0.28 0.28 0.29 0.31 0.25 0.30 0.42 0.31 0.08 0.03 0.01 0.00 0.00 0.00 0.00 0.00 0.00 0.00 0.01 0.02 0.01 0.01 0.00 0.00 0.02 0.03 0.23 0.04 0.01 0.00 0.01 0.01 0.02 0.09 0.27 0.31 0.59
0.68 0.55 0.41 0.31 0.26 0.25 0.20 0.22 0.23 0.29 0.20 0.15 0.28 0.49 0.40 0.29 0.26 0.15 0.03 0.02 0.02 0.01 0.01 0.01 0.00 0.01 0.00 0.00 0.01 0.01 0.00 0.00 0.00 0.00 0.02 0.05 0.12 0.11 0.05 0.05 0.15 0.07 0.03 0.06 0.19 0.44 0.93
0.71 0.62 0.51 0.41 0.32 0.30 0.31 0.23 0.26 0.25 0.22 0.11 0.17 0.47 0.82 0.62 0.10 0.03 0.03 0.02 0.02 0.01 0.01 0.01 0.01 0.00 0.00 0.00 0.00 0.00 0.00 0.00 0.00 0.00 0.00 0.04 0.12 0.22 0.28 0.34 0.44 0.30 0.20 0.15 0.47 0.93 0.74
0.85 0.68 0.59 0.52 0.42 0.33 0.29 0.33 0.34 0.32 0.25 0.20 0.15 0.11 0.20 0.29 0.10 0.02 0.02 0.02 0.02 0.01 0.01 0.01 0.01 0.02 0.01 0.01 0.00 0.00 0.00 0.00 0.00 0.00 0.00 0.04 0.23 0.26 0.35 0.53 0.35 0.26 0.62 0.58 0.42 0.49 0.35
0.87 0.70 0.65 0.59 0.46 0.42 0.29 0.27 0.33 0.34 0.35 0.28 0.17 0.05 0.02 0.00 0.01 0.02 0.02 0.02 0.02 0.01 0.01 0.01 0.02 0.01 0.01 0.02 0.01 0.01 0.01 0.01 0.00 0.00 0.00 0.08 0.40 0.51 0.42 0.49 0.21 0.39 0.68 0.41 0.38 0.61 0.52
0.94 0.75 0.61 0.52 0.43 0.38 0.42 0.29 0.25 0.27 0.35 0.30 0.10 0.01 0.03 0.03 0.02 0.04 0.03 0.01 0.01 0.01 0.01 0.01 0.02 0.02 0.01 0.00 0.00 0.00 0.00 0.00 0.00 0.00 0.01 0.08 0.24 0.31 0.25 0.24 0.17 0.44 0.79 0.49 0.29 0.22 0.17
1.01 0.80 0.60 0.49 0.42 0.36 0.36 0.41 0.33 0.23 0.16 0.12 0.05 0.02 0.05 0.07 0.02 0.02 0.01 0.01 0.01 0.01 0.02 0.01 0.02 0.01 0.00 0.00 0.00 0.00 0.00 0.00 0.00 0.00 0.01 0.07 0.10 0.19 0.20 0.28 0.40 0.48 0.26 0.13 0.04 0.05 0.07
0.86 0.80 0.55 0.48 0.43 0.42 0.31 0.37 0.59 0.33 0.14 0.11 0.06 0.03 0.04 0.05 0.01 0.02 0.03 0.02 0.01 0.01 0.02 0.02 0.01 0.01 0.00 0.00 0.00 0.01 0.00 0.00 0.00 0.00 0.02 0.01 0.10 0.20 0.36 0.24 0.33 0.25 0.09 0.05 0.05 0.08 0.08
0.79 0.80 0.54 0.47 0.39 0.42 0.43 0.38 0.57 0.56 0.20 0.11 0.06 0.03 0.04 0.08 0.06 0.01 0.01 0.01 0.01 0.02 0.03 0.02 0.02 0.00 0.00 0.00 0.01 0.02 0.02 0.00 0.03 0.04 0.02 0.01 0.05 0.24 0.32 0.18 0.22 0.13 0.06 0.03 0.03 0.10 0.06
0.99 0.89 0.62 0.53 0.44 0.46 0.45 0.39 0.35 0.58 0.30 0.12 0.05 0.03 0.09 0.10 0.03 0.01 0.04 0.02 0.01 0.03 0.01 0.00 0.00 0.00 0.00 0.00 0.01 0.00 0.00 0.00 0.09 0.04 0.05 0.04 0.05 0.17 0.24 0.12 0.09 0.04 0.08 0.07 0.13 0.15 0.06
1.03 0.92 0.56 0.47 0.42 0.37 0.35 0.28 0.29 0.49 0.44 0.19 0.11 0.03 0.06 0.08 0.07 0.02 0.01 0.03 0.02 0.02 0.02 0.01 0.01 0.01 0.00 0.00 0.00 0.00 0.00 0.00 0.13 0.10 0.03 0.01 0.05 0.09 0.14 0.14 0.14 0.07 0.16 0.17 0.11 0.06 0.03
0.77 0.77 0.50 0.41 0.41 0.32 0.21 0.22 0.36 0.45 0.47 0.27 0.16 0.05 0.07 0.11 0.07 0.02 0.01 0.00 0.01 0.01 0.00 0.00 0.00 0.01 0.00 0.00 0.00 0.00 0.00 0.00 0.07 0.22 0.04 0.03 0.02 0.08 0.11 0.13 0.14 0.15 0.18 0.12 0.04 0.05 0.05

GFSGBSN_prec_precacc24_132.txt.gz
Total_Precipitation_Accumulation
0.31 0.28 0.26 0.21 0.17 0.15 0.15 0.14 0.13 0.08 0.04 0.02 0.01 0.00 0.00 0.00 0.00 0.00 0.00 0.00 0.00 0.00 0.00 0.00 0.00 0.00 0.00 0.00 0.00 0.00 0.00 0.00 0.00 0.00 0.00 0.00 0.00 0.00 0.00 0.00 0.00 0.00 0.00 0.00 0.00 0.00 0.00
0.24 0.26 0.27 0.25 0.22 0.15 0.08 0.07 0.06 0.04 0.02 0.02 0.01 0.00 0.00 0.00 0.00 0.00 0.00 0.00 0.00 0.00 0.00 0.00 0.00 0.00 0.00 0.00 0.00 0.00 0.00 0.00 0.00 0.00 0.00 0.00 0.00 0.00 0.00 0.00 0.00 0.00 0.00 0.00 0.00 0.00 0.00
0.29 0.23 0.17 0.15 0.13 0.10 0.08 0.05 0.04 0.04 0.04 0.03 0.02 0.01 0.00 0.00 0.00 0.00 0.00 0.00 0.00 0.00 0.00 0.00 0.00 0.00 0.00 0.00 0.00 0.00 0.00 0.00 0.00 0.00 0.00 0.00 0.00 0.00 0.00 0.00 0.00 0.00 0.00 0.00 0.00 0.00 0.00
0.18 0.19 0.19 0.20 0.21 0.20 0.18 0.18 0.17 0.14 0.10 0.07 0.04 0.02 0.01 0.00 0.00 0.00 0.00 0.00 0.00 0.00 0.00 0.00 0.00 0.00 0.00 0.00 0.00 0.00 0.00 0.00 0.00 0.00 0.00 0.00 0.00 0.00 0.00 0.00 0.00 0.00 0.00 0.00 0.00 0.00 0.00
0.15 0.15 0.15 0.15 0.14 0.14 0.14 0.14 0.17 0.22 0.22 0.20 0.18 0.12 0.05 0.02 0.00 0.00 0.00 0.00 0.00 0.00 0.00 0.00 0.00 0.00 0.00 0.00 0.00 0.00 0.00 0.00 0.00 0.00 0.00 0.00 0.00 0.00 0.00 0.00 0.00 0.00 0.00 0.00 0.00 0.00 0.00
0.14 0.14 0.11 0.10 0.09 0.10 0.10 0.12 0.15 0.21 0.29 0.27 0.31 0.33 0.22 0.11 0.05 0.01 0.00 0.00 0.00 0.00 0.00 0.00 0.00 0.00 0.00 0.00 0.00 0.00 0.00 0.00 0.00 0.00 0.00 0.00 0.00 0.00 0.00 0.00 0.00 0.00 0.00 0.00 0.00 0.00 0.00
0.12 0.14 0.15 0.17 0.16 0.13 0.10 0.09 0.09 0.13 0.19 0.19 0.21 0.25 0.26 0.20 0.11 0.07 0.02 0.00 0.00 0.00 0.00 0.00 0.00 0.00 0.00 0.00 0.00 0.00 0.00 0.00 0.00 0.00 0.00 0.00 0.00 0.00 0.00 0.00 0.00 0.00 0.01 0.01 0.00 0.00 0.00
0.09 0.13 0.16 0.15 0.11 0.10 0.10 0.11 0.10 0.10 0.09 0.08 0.07 0.09 0.11 0.14 0.10 0.03 0.00 0.00 0.00 0.00 0.00 0.00 0.00 0.00 0.00 0.00 0.00 0.00 0.00 0.00 0.00 0.00 0.00 0.00 0.00 0.00 0.00 0.00 0.00 0.00 0.00 0.00 0.01 0.00 0.00
0.12 0.12 0.14 0.17 0.19 0.17 0.12 0.10 0.09 0.09 0.10 0.10 0.10 0.10 0.07 0.04 0.01 0.00 0.00 0.00 0.00 0.00 0.00 0.00 0.00 0.00 0.00 0.00 0.00 0.00 0.00 0.00 0.00 0.00 0.00 0.00 0.00 0.00 0.00 0.00 0.00 0.00 0.00 0.00 0.01 0.00 0.00
0.10 0.14 0.16 0.16 0.15 0.18 0.19 0.21 0.22 0.17 0.13 0.09 0.09 0.14 0.13 0.06 0.01 0.00 0.00 0.00 0.00 0.00 0.00 0.00 0.00 0.00 0.00 0.00 0.00 0.00 0.00 0.00 0.00 0.00 0.00 0.00 0.00 0.00 0.00 0.00 0.00 0.00 0.00 0.00 0.00 0.00 0.00
0.09 0.12 0.15 0.17 0.18 0.19 0.22 0.24 0.23 0.20 0.16 0.12 0.12 0.09 0.08 0.09 0.01 0.01 0.00 0.00 0.00 0.01 0.06 0.00 0.00 0.00 0.00 0.00 0.00 0.00 0.00 0.00 0.00 0.00 0.00 0.00 0.00 0.00 0.00 0.00 0.00 0.00 0.01 0.01 0.00 0.00 0.02
0.10 0.10 0.15 0.20 0.20 0.23 0.26 0.29 0.26 0.17 0.13 0.09 0.09 0.11 0.16 0.06 0.01 0.00 0.00 0.01 0.05 0.14 0.12 0.00 0.00 0.00 0.00 0.00 0.00 0.00 0.00 0.00 0.00 0.00 0.00 0.00 0.00 0.00 0.00 0.00 0.00 0.00 0.00 0.01 0.01 0.03 0.06
0.13 0.14 0.13 0.15 0.17 0.23 0.30 0.25 0.17 0.13 0.14 0.15 0.15 0.13 0.10 0.04 0.06 0.03 0.03 0.06 0.24 0.22 0.02 0.00 0.00 0.00 0.00 0.00 0.00 0.00 0.00 0.00 0.00 0.01 0.00 0.00 0.00 0.00 0.00 0.00 0.00 0.00 0.00 0.02 0.04 0.06 0.03
0.12 0.14 0.16 0.16 0.14 0.18 0.22 0.21 0.17 0.15 0.14 0.15 0.20 0.16 0.15 0.07 0.06 0.06 0.10 0.17 0.30 0.06 0.00 0.00 0.00 0.00 0.00 0.00 0.00 0.00 0.00 0.00 0.00 0.02 0.03 0.01 0.00 0.00 0.00 0.00 0.00 0.00 0.00 0.05 0.23 0.30 0.17
0.10 0.13 0.15 0.17 0.16 0.14 0.16 0.16 0.16 0.18 0.17 0.21 0.29 0.20 0.12 0.08 0.11 0.19 0.29 0.32 0.09 0.00 0.00 0.00 0.01 0.00 0.00 0.00 0.00 0.00 0.00 0.00 0.00 0.01 0.10 0.04 0.02 0.00 0.00 0.00 0.00 0.00 0.02 0.03 0.21 0.15 0.34
0.16 0.17 0.17 0.19 0.24 0.21 0.18 0.19 0.19 0.23 0.25 0.22 0.16 0.16 0.12 0.10 0.14 0.21 0.34 0.28 0.07 0.01 0.00 0.00 0.01 0.00 0.00 0.00 0.00 0.00 0.00 0.00 0.00 0.00 0.05 0.12 0.17 0.00 0.04 0.02 0.01 0.02 0.03 0.09 0.26 0.33 0.12
0.21 0.20 0.19 0.21 0.27 0.25 0.21 0.19 0.22 0.21 0.34 0.22 0.16 0.26 0.25 0.19 0.28 0.45 0.30 0.07 0.01 0.00 0.00 0.00 0.01 0.01 0.01 0.00 0.00 0.01 0.00 0.00 0.00 0.00 0.00 0.04 0.17 0.02 0.01 0.01 0.00 0.01 0.03 0.09 0.17 0.12 0.18
0.36 0.29 0.26 0.20 0.20 0.20 0.23 0.23 0.24 0.27 0.30 0.29 0.29 0.31 0.25 0.30 0.42 0.31 0.08 0.03 0.01 0.00 0.00 0.00 0.00 0.00 0.00 0.00 0.00 0.02 0.01 0.01 0.00 0.00 0.00 0.02 0.14 0.03 0.00 0.00 0.00 0.01 0.01 0.08 0.28 0.15 0.33
0.59 0.50 0.39 0.31 0.25 0.24 0.20 0.23 0.23 0.31 0.22 0.15 0.29 0.49 0.41 0.30 0.26 0.15 0.03 0.02 0.02 0.01 0.01 0.01 0.00 0.00 0.00 0.00 0.01 0.01 0.00 0.00 0.00 0.00 0.02 0.05 0.09 0.10 0.02 0.03 0.06 0.05 0.02 0.05 0.16 0.30 0.56
0.65 0.59 0.52 0.42 0.33 0.30 0.30 0.23 0.26 0.28 0.26 0.12 0.17 0.47 0.87 0.67 0.10 0.03 0.03 0.02 0.02 0.01 0.01 0.01 0.01 0.00 0.00 0.00 0.00 0.00 0.00 0.00 0.00 0.00 0.00 0.04 0.11 0.21 0.24 0.28 0.28 0.19 0.13 0.13 0.34 0.73 0.49
0.82 0.67 0.61 0.54 0.43 0.34 0.30 0.34 0.34 0.34 0.31 0.24 0.16 0.11 0.21 0.33 0.11 0.03 0.02 0.02 0.02 0.01 0.01 0.01 0.01 0.02 0.01 0.01 0.00 0.00 0.00 0.00 0.00 0.00 0.00 0.04 0.23 0.24 0.30 0.31 0.22 0.23 0.38 0.32 0.26 0.32 0.18
0.86 0.71 0.67 0.61 0.48 0.43 0.29 0.27 0.34 0.36 0.42 0.34 0.18 0.05 0.02 0.00 0.01 0.02 0.02 0.02 0.02 0.01 0.01 0.01 0.02 0.01 0.02 0.02 0.01 0.01 0.00 0.00 0.00 0.00 0.00 0.07 0.29 0.29 0.24 0.32 0.17 0.28 0.48 0.35 0.26 0.30 0.29
0.94 0.75 0.62 0.54 0.45 0.40 0.43 0.30 0.26 0.28 0.41 0.38 0.10 0.01 0.03 0.03 0.02 0.04 0.03 0.01 0.01 0.01 0.01 0.01 0.02 0.03 0.02 0.01 0.01 0.00 0.00 0.00 0.00 0.00 0.01 0.08 0.19 0.24 0.15 0.16 0.14 0.28 0.61 0.47 0.21 0.15 0.14
1.01 0.81 0.62 0.51 0.44 0.39 0.37 0.41 0.34 0.23 0.19 0.18 0.06 0.02 0.06 0.08 0.02 0.02 0.01 0.01 0.01 0.01 0.02 0.01 0.02 0.02 0.01 0.01 0.00 0.00 0.00 0.00 0.00 0.00 0.01 0.07 0.11 0.20 0.20 0.23 0.34 0.28 0.18 0.11 0.04 0.04 0.06
0.87 0.81 0.57 0.51 0.46 0.44 0.33 0.38 0.60 0.33 0.15 0.14 0.08 0.03 0.05 0.05 0.01 0.02 0.03 0.02 0.01 0.01 0.02 0.02 0.02 0.04 0.02 0.01 0.01 0.02 0.01 0.01 0.00 0.00 0.01 0.02 0.11 0.26 0.33 0.20 0.23 0.17 0.08 0.04 0.04 0.06 0.07
0.79 0.81 0.55 0.49 0.42 0.45 0.45 0.40 0.58 0.56 0.21 0.13 0.08 0.06 0.04 0.08 0.06 0.01 0.01 0.01 0.01 0.02 0.03 0.02 0.03 0.02 0.00 0.00 0.01 0.02 0.01 0.01 0.02 0.04 0.02 0.01 0.05 0.22 0.31 0.17 0.18 0.12 0.06 0.03 0.03 0.09 0.05
0.99 0.89 0.62 0.54 0.46 0.48 0.47 0.40 0.36 0.58 0.30 0.14 0.06 0.05 0.16 0.11 0.03 0.02 0.04 0.02 0.02 0.03 0.01 0.00 0.00 0.01 0.01 0.03 0.03 0.01 0.00 0.00 0.06 0.03 0.05 0.04 0.05 0.17 0.24 0.12 0.09 0.04 0.08 0.07 0.13 0.13 0.03
1.03 0.92 0.57 0.48 0.43 0.38 0.37 0.30 0.30 0.49 0.44 0.22 0.12 0.03 0.10 0.12 0.07 0.03 0.01 0.03 0.02 0.02 0.02 0.01 0.02 0.02 0.02 0.04 0.03 0.00 0.00 0.01 0.11 0.07 0.02 0.01 0.05 0.09 0.15 0.15 0.14 0.07 0.16 0.16 0.09 0.04 0.02
0.77 0.77 0.50 0.41 0.42 0.33 0.22 0.23 0.37 0.46 0.47 0.29 0.17 0.05 0.10 0.15 0.08 0.02 0.01 0.00 0.01 0.02 0.03 0.02 0.01 0.00 0.00 0.00 0.00 0.00 0.00 0.00 0.07 0.23 0.07 0.07 0.03 0.08 0.10 0.12 0.12 0.14 0.17 0.11 0.03 0.04 0.04

GFSGBSN_prec_precacc24_138.txt.gz
Total_Precipitation_Accumulation
0.33 0.32 0.32 0.29 0.26 0.21 0.18 0.15 0.13 0.08 0.04 0.02 0.01 0.00 0.00 0.00 0.00 0.00 0.00 0.00 0.00 0.00 0.00 0.00 0.00 0.00 0.00 0.00 0.00 0.00 0.00 0.00 0.00 0.00 0.00 0.00 0.00 0.00 0.00 0.00 0.00 0.00 0.00 0.00 0.00 0.00 0.00
0.30 0.34 0.35 0.34 0.33 0.30 0.27 0.20 0.13 0.07 0.03 0.02 0.01 0.00 0.00 0.00 0.00 0.00 0.00 0.00 0.00 0.00 0.00 0.00 0.00 0.00 0.00 0.00 0.00 0.00 0.00 0.00 0.00 0.00 0.00 0.00 0.00 0.00 0.00 0.00 0.00 0.00 0.00 0.00 0.00 0.00 0.00
0.35 0.29 0.21 0.18 0.16 0.16 0.18 0.17 0.17 0.19 0.16 0.07 0.02 0.01 0.00 0.00 0.00 0.00 0.00 0.00 0.00 0.00 0.00 0.00 0.00 0.00 0.00 0.00 0.00 0.00 0.00 0.00 0.00 0.00 0.00 0.00 0.00 0.00 0.00 0.00 0.00 0.00 0.00 0.00 0.00 0.00 0.00
0.20 0.19 0.20 0.23 0.25 0.23 0.22 0.24 0.24 0.22 0.18 0.12 0.06 0.02 0.02 0.00 0.00 0.00 0.00 0.00 0.00 0.00 0.00 0.00 0.00 0.00 0.00 0.00 0.00 0.00 0.00 0.00 0.00 0.00 0.00 0.00 0.00 0.00 0.00 0.00 0.00 0.00 0.00 0.00 0.00 0.00 0.00
0.08 0.10 0.12 0.13 0.12 0.13 0.14 0.14 0.20 0.26 0.28 0.27 0.25 0.18 0.09 0.03 0.00 0.00 0.00 0.00 0.00 0.00 0.00 0.00 0.00 0.00 0.00 0.00 0.00 0.00 0.00 0.00 0.00 0.00 0.00 0.00 0.00 0.00 0.00 0.00 0.00 0.00 0.00 0.00 0.00 0.00 0.00
0.08 0.09 0.07 0.07 0.07 0.08 0.09 0.11 0.15 0.23 0.33 0.30 0.34 0.39 0.27 0.13 0.05 0.01 0.00 0.00 0.00 0.00 0.00 0.00 0.00 0.00 0.00 0.00 0.00 0.00 0.00 0.00 0.00 0.00 0.00 0.00 0.00 0.00 0.00 0.00 0.00 0.00 0.00 0.00 0.00 0.00 0.00
0.02 0.05 0.09 0.12 0.11 0.08 0.07 0.07 0.08 0.13 0.19 0.21 0.24 0.30 0.28 0.22 0.12 0.07 0.02 0.00 0.00 0.00 0.00 0.00 0.00 0.00 0.00 0.00 0.00 0.00 0.00 0.00 0.00 0.00 0.00 0.00 0.00 0.00 0.00 0.00 0.00 0.00 0.00 0.00 0.00 0.00 0.00
0.01 0.01 0.02 0.05 0.05 0.06 0.06 0.08 0.08 0.09 0.09 0.08 0.08 0.10 0.12 0.15 0.11 0.03 0.00 0.00 0.00 0.00 0.00 0.00 0.00 0.00 0.00 0.00 0.00 0.00 0.00 0.00 0.00 0.00 0.00 0.00 0.00 0.00 0.00 0.00 0.00 0.00 0.00 0.00 0.00 0.00 0.00
0.01 0.01 0.00 0.03 0.09 0.09 0.06 0.04 0.04 0.07 0.09 0.09 0.11 0.11 0.08 0.04 0.01 0.00 0.00 0.00 0.00 0.00 0.00 0.00 0.00 0.00 0.00 0.00 0.00 0.00 0.00 0.00 0.00 0.00 0.00 0.00 0.00 0.00 0.00 0.00 0.00 0.00 0.00 0.00 0.00 0.00 0.00
0.01 0.01 0.01 0.01 0.02 0.04 0.08 0.12 0.13 0.09 0.07 0.06 0.07 0.14 0.16 0.06 0.01 0.00 0.00 0.00 0.00 0.00 0.00 0.00 0.00 0.00 0.00 0.00 0.00 0.00 0.00 0.00 0.00 0.00 0.00 0.00 0.00 0.00 0.00 0.00 0.00 0.00 0.00 0.00 0.00 0.00 0.00
0.02 0.01 0.01 0.01 0.02 0.03 0.07 0.10 0.11 0.12 0.11 0.08 0.10 0.09 0.11 0.10 0.01 0.01 0.00 0.00 0.00 0.01 0.06 0.00 0.00 0.00 0.00 0.00 0.00 0.00 0.00 0.00 0.00 0.00 0.00 0.00 0.00 0.00 0.00 0.00 0.00 0.00 0.00 0.00 0.00 0.00 0.00
0.02 0.02 0.01 0.02 0.02 0.04 0.08 0.10 0.13 0.11 0.11 0.08 0.10 0.14 0.21 0.08 0.01 0.00 0.00 0.01 0.05 0.14 0.12 0.00 0.00 0.00 0.00 0.00 0.00 0.00 0.00 0.00 0.00 0.00 0.00 0.00 0.00 0.00 0.00 0.00 0.00 0.00 0.00 0.00 0.00 0.00 0.01
0.04 0.03 0.03 0.02 0.02 0.03 0.08 0.10 0.09 0.07 0.10 0.14 0.17 0.18 0.15 0.05 0.06 0.03 0.03 0.06 0.24 0.22 0.02 0.00 0.00 0.00 0.00 0.00 0.00 0.00 0.00 0.00 0.00 0.00 0.00 0.00 0.00 0.00 0.00 0.00 0.00 0.00 0.00 0.00 0.01 0.03 0.02
0.05 0.04 0.03 0.03 0.03 0.04 0.06 0.09 0.10 0.08 0.09 0.12 0.23 0.22 0.19 0.07 0.06 0.06 0.10 0.17 0.30 0.06 0.00 0.00 0.00 0.00 0.00 0.00 0.00 0.00 0.00 0.00 0.00 0.00 0.00 0.00 0.00 0.00 0.00 0.00 0.00 0.00 0.00 0.02 0.06 0.03 0.02
0.04 0.04 0.04 0.03 0.03 0.05 0.06 0.10 0.12 0.15 0.15 0.20 0.30 0.21 0.14 0.09 0.11 0.19 0.29 0.32 0.09 0.00 0.00 0.00 0.01 0.00 0.00 0.00 0.00 0.00 0.00 0.00 0.00 0.00 0.00 0.00 0.00 0.00 0.00 0.00 0.00 0.00 0.00 0.00 0.08 0.03 0.13
0.04 0.03 0.03 0.03 0.05 0.06 0.08 0.11 0.15 0.21 0.26 0.22 0.16 0.16 0.13 0.10 0.14 0.21 0.34 0.28 0.07 0.01 0.00 0.00 0.01 0.00 0.00 0.00 0.00 0.00 0.00 0.00 0.00 0.00 0.00 0.00 0.02 0.00 0.00 0.00 0.00 0.00 0.00 0.05 0.15 0.19 0.12
0.06 0.05 0.04 0.04 0.06 0.08 0.09 0.11 0.17 0.19 0.35 0.22 0.16 0.26 0.25 0.19 0.28 0.46 0.31 0.07 0.01 0.00 0.00 0.00 0.01 0.01 0.01 0.00 0.00 0.01 0.00 0.00 0.00 0.00 0.00 0.00 0.02 0.00 0.00 0.00 0.00 0.00 0.02 0.08 0.15 0.09 0.17
0.06 0.06 0.05 0.05 0.07 0.10 0.12 0.13 0.16 0.24 0.30 0.29 0.28 0.31 0.25 0.30 0.42 0.32 0.08 0.03 0.01 0.00 0.00 0.00 0.00 0.00 0.00 0.00 0.00 0.02 0.01 0.01 0.00 0.00 0.00 0.00 0.03 0.00 0.00 0.00 0.00 0.00 0.01 0.07 0.29 0.18 0.32
0.09 0.08 0.07 0.08 0.09 0.11 0.13 0.15 0.18 0.31 0.24 0.15 0.28 0.49 0.42 0.30 0.26 0.15 0.03 0.02 0.02 0.01 0.01 0.01 0.00 0.00 0.00 0.00 0.01 0.01 0.00 0.00 0.00 0.00 0.00 0.01 0.04 0.05 0.01 0.02 0.01 0.01 0.02 0.04 0.16 0.28 0.28
0.10 0.13 0.12 0.12 0.13 0.18 0.16 0.15 0.21 0.30 0.35 0.12 0.17 0.48 0.90 0.70 0.10 0.03 0.03 0.02 0.02 0.01 0.01 0.01 0.01 0.00 0.00 0.00 0.00 0.00 0.00 0.00 0.00 0.00 0.00 0.01 0.05 0.08 0.10 0.18 0.16 0.09 0.10 0.09 0.20 0.33 0.22
0.18 0.18 0.18 0.18 0.18 0.19 0.20 0.20 0.32 0.37 0.42 0.26 0.16 0.11 0.22 0.35 0.12 0.03 0.02 0.02 0.02 0.01 0.01 0.01 0.01 0.02 0.01 0.01 0.00 0.00 0.00 0.00 0.00 0.00 0.00 0.01 0.04 0.07 0.09 0.11 0.09 0.10 0.14 0.06 0.05 0.07 0.12
0.31 0.30 0.28 0.27 0.26 0.24 0.19 0.24 0.35 0.38 0.50 0.39 0.18 0.05 0.02 0.00 0.01 0.03 0.02 0.02 0.02 0.01 0.01 0.01 0.02 0.01 0.02 0.02 0.01 0.01 0.00 0.00 0.00 0.00 0.00 0.01 0.04 0.05 0.03 0.10 0.07 0.10 0.18 0.05 0.03 0.05 0.04
0.49 0.39 0.33 0.28 0.27 0.31 0.41 0.30 0.26 0.31 0.45 0.52 0.16 0.01 0.03 0.03 0.02 0.04 0.03 0.01 0.01 0.01 0.01 0.01 0.02 0.03 0.02 0.01 0.01 0.00 0.00 0.00 0.00 0.00 0.00 0.02 0.04 0.06 0.04 0.08 0.08 0.15 0.13 0.15 0.06 0.05 0.04
0.71 0.57 0.43 0.36 0.35 0.37 0.43 0.45 0.35 0.25 0.20 0.24 0.16 0.04 0.06 0.08 0.02 0.02 0.01 0.01 0.01 0.01 0.02 0.01 0.02 0.02 0.01 0.01 0.00 0.00 0.00 0.00 0.00 0.00 0.00 0.02 0.05 0.09 0.09 0.18 0.28 0.11 0.05 0.05 0.01 0.02 0.02
0.73 0.70 0.47 0.47 0.46 0.46 0.38 0.45 0.64 0.35 0.17 0.14 0.22 0.12 0.05 0.05 0.01 0.02 0.03 0.02 0.01 0.01 0.02 0.02 0.02 0.04 0.02 0.01 0.02 0.03 0.01 0.01 0.00 0.00 0.00 0.00 0.05 0.17 0.21 0.18 0.16 0.08 0.02 0.01 0.01 0.03 0.02
0.75 0.77 0.52 0.47 0.43 0.48 0.48 0.45 0.62 0.58 0.24 0.14 0.11 0.29 0.12 0.09 0.06 0.01 0.01 0.01 0.01 0.02 0.03 0.02 0.03 0.02 0.00 0.01 0.05 0.06 0.02 0.01 0.01 0.03 0.02 0.01 0.02 0.15 0.26 0.29 0.19 0.09 0.05 0.03 0.03 0.07 0.01
0.99 0.88 0.62 0.54 0.47 0.51 0.51 0.45 0.40 0.60 0.35 0.17 0.06 0.15 0.54 0.20 0.03 0.02 0.04 0.02 0.02 0.03 0.01 0.00 0.00 0.01 0.01 0.05 0.09 0.03 0.01 0.00 0.01 0.03 0.05 0.04 0.06 0.15 0.21 0.23 0.10 0.03 0.06 0.07 0.12 0.10 0.01
1.04 0.93 0.58 0.48 0.44 0.41 0.41 0.36 0.35 0.51 0.49 0.26 0.13 0.04 0.36 0.45 0.09 0.03 0.01 0.03 0.02 0.02 0.02 0.01 0.04 0.03 0.03 0.07 0.06 0.02 0.00 0.00 0.03 0.04 0.02 0.02 0.04 0.08 0.13 0.20 0.14 0.06 0.15 0.15 0.06 0.01 0.00
0.77 0.78 0.52 0.42 0.42 0.34 0.26 0.27 0.45 0.50 0.52 0.36 0.18 0.05 0.12 0.38 0.22 0.05 0.01 0.00 0.01 0.02 0.03 0.03 0.02 0.01 0.03 0.02 0.01 0.00 0.00 0.00 0.03 0.13 0.06 0.07 0.02 0.06 0.09 0.10 0.07 0.11 0.14 0.08 0.02 0.02 0.01

GFSGBSN_prec_precacc24_141.txt.gz
Total_Precipitation_Accumulation
0.33 0.32 0.32 0.29 0.26 0.21 0.18 0.15 0.13 0.08 0.04 0.02 0.01 0.00 0.00 0.00 0.00 0.00 0.00 0.00 0.00 0.00 0.00 0.00 0.00 0.00 0.00 0.00 0.00 0.00 0.00 0.00 0.00 0.00 0.00 0.00 0.00 0.00 0.00 0.00 0.00 0.00 0.00 0.00 0.00 0.00 0.00
0.30 0.34 0.36 0.34 0.33 0.30 0.27 0.20 0.13 0.07 0.03 0.02 0.01 0.00 0.00 0.00 0.00 0.00 0.00 0.00 0.00 0.00 0.00 0.00 0.00 0.00 0.00 0.00 0.00 0.00 0.00 0.00 0.00 0.00 0.00 0.00 0.00 0.00 0.00 0.00 0.00 0.00 0.00 0.00 0.00 0.00 0.00
0.27 0.27 0.23 0.21 0.18 0.16 0.18 0.17 0.17 0.19 0.16 0.11 0.06 0.02 0.01 0.00 0.00 0.00 0.00 0.00 0.00 0.00 0.00 0.00 0.00 0.00 0.00 0.00 0.00 0.00 0.00 0.00 0.00 0.00 0.00 0.00 0.00 0.00 0.00 0.00 0.00 0.00 0.00 0.00 0.00 0.00 0.00
0.24 0.25 0.23 0.22 0.27 0.24 0.22 0.24 0.24 0.22 0.18 0.13 0.08 0.04 0.03 0.01 0.00 0.00 0.00 0.00 0.00 0.00 0.00 0.00 0.00 0.00 0.00 0.00 0.00 0.00 0.00 0.00 0.00 0.00 0.00 0.00 0.00 0.00 0.00 0.00 0.00 0.00 0.00 0.00 0.00 0.00 0.00
0.16 0.13 0.10 0.08 0.08 0.11 0.13 0.14 0.20 0.26 0.28 0.28 0.26 0.21 0.14 0.07 0.03 0.02 0.00 0.00 0.00 0.00 0.00 0.00 0.00 0.00 0.00 0.00 0.00 0.00 0.00 0.00 0.00 0.00 0.00 0.00 0.00 0.00 0.00 0.00 0.00 0.00 0.00 0.00 0.00 0.00 0.00
0.09 0.08 0.06 0.04 0.03 0.05 0.08 0.10 0.14 0.22 0.31 0.30 0.34 0.39 0.31 0.18 0.10 0.03 0.00 0.00 0.00 0.00 0.00 0.00 0.00 0.00 0.00 0.00 0.00 0.00 0.00 0.00 0.00 0.00 0.00 0.00 0.00 0.00 0.00 0.00 0.00 0.00 0.00 0.00 0.00 0.00 0.00
0.05 0.04 0.03 0.03 0.06 0.07 0.06 0.06 0.07 0.12 0.18 0.20 0.24 0.30 0.31 0.25 0.15 0.07 0.02 0.00 0.00 0.00 0.00 0.00 0.00 0.00 0.00 0.00 0.00 0.00 0.00 0.00 0.00 0.00 0.00 0.00 0.00 0.00 0.00 0.00 0.00 0.00 0.00 0.00 0.00 0.00 0.00
0.02 0.02 0.01 0.01 0.00 0.03 0.06 0.07 0.07 0.06 0.06 0.06 0.07 0.11 0.13 0.17 0.13 0.03 0.00 0.00 0.00 0.00 0.00 0.00 0.00 0.00 0.00 0.00 0.00 0.00 0.00 0.00 0.00 0.00 0.00 0.00 0.00 0.00 0.00 0.00 0.00 0.00 0.00 0.00 0.00 0.00 0.00
0.01 0.02 0.01 0.00 0.00 0.00 0.01 0.02 0.03 0.05 0.05 0.06 0.09 0.10 0.10 0.08 0.03 0.00 0.00 0.00 0.00 0.00 0.00 0.00 0.00 0.00 0.00 0.00 0.00 0.00 0.00 0.00 0.00 0.00 0.00 0.00 0.00 0.00 0.00 0.00 0.00 0.00 0.00 0.00 0.00 0.00 0.00
0.01 0.01 0.02 0.01 0.00 0.00 0.00 0.04 0.08 0.07 0.05 0.04 0.06 0.13 0.16 0.07 0.02 0.00 0.00 0.00 0.00 0.00 0.00 0.00 0.00 0.00 0.00 0.00 0.00 0.00 0.00 0.00 0.00 0.00 0.00 0.00 0.00 0.00 0.00 0.00 0.00 0.00 0.00 0.00 0.00 0.00 0.00
0.02 0.01 0.01 0.01 0.01 0.01 0.00 0.01 0.05 0.10 0.10 0.07 0.10 0.09 0.11 0.11 0.01 0.01 0.00 0.00 0.00 0.01 0.06 0.00 0.00 0.00 0.00 0.00 0.00 0.00 0.00 0.00 0.00 0.00 0.00 0.00 0.00 0.00 0.00 0.00 0.00 0.00 0.00 0.00 0.00 0.00 0.00
0.03 0.02 0.02 0.02 0.01 0.01 0.01 0.01 0.03 0.06 0.09 0.06 0.09 0.12 0.21 0.08 0.01 0.00 0.00 0.01 0.05 0.14 0.12 0.00 0.00 0.00 0.00 0.00 0.00 0.00 0.00 0.00 0.00 0.00 0.00 0.00 0.00 0.00 0.00 0.00 0.00 0.00 0.00 0.00 0.00 0.00 0.01
0.04 0.03 0.03 0.02 0.01 0.01 0.01 0.01 0.02 0.03 0.06 0.09 0.13 0.17 0.15 0.05 0.06 0.03 0.03 0.06 0.24 0.22 0.02 0.00 0.00 0.00 0.00 0.00 0.00 0.00 0.00 0.00 0.00 0.00 0.00 0.00 0.00 0.00 0.00 0.00 0.00 0.00 0.00 0.00 0.01 0.03 0.02
0.06 0.04 0.03 0.03 0.03 0.02 0.02 0.01 0.02 0.04 0.06 0.09 0.18 0.21 0.19 0.08 0.06 0.06 0.10 0.17 0.29 0.06 0.00 0.00 0.00 0.00 0.00 0.00 0.00 0.00 0.00 0.00 0.00 0.00 0.00 0.00 0.00 0.00 0.00 0.00 0.00 0.00 0.00 0.01 0.01 0.00 0.00
0.05 0.04 0.04 0.03 0.02 0.03 0.03 0.02 0.05 0.09 0.12 0.14 0.25 0.16 0.14 0.08 0.11 0.19 0.29 0.32 0.09 0.00 0.00 0.00 0.01 0.00 0.00 0.00 0.00 0.00 0.00 0.00 0.00 0.00 0.00 0.00 0.00 0.00 0.00 0.00 0.00 0.00 0.00 0.00 0.04 0.02 0.05
0.06 0.04 0.04 0.04 0.04 0.03 0.04 0.03 0.06 0.15 0.18 0.15 0.09 0.11 0.12 0.10 0.13 0.21 0.34 0.29 0.07 0.01 0.00 0.00 0.01 0.00 0.00 0.00 0.00 0.00 0.00 0.00 0.00 0.00 0.00 0.00 0.00 0.00 0.00 0.00 0.00 0.00 0.00 0.03 0.13 0.17 0.10
0.09 0.07 0.06 0.04 0.04 0.04 0.04 0.04 0.08 0.15 0.25 0.11 0.06 0.15 0.22 0.19 0.28 0.47 0.31 0.07 0.01 0.00 0.00 0.00 0.01 0.01 0.01 0.00 0.00 0.01 0.00 0.00 0.00 0.00 0.00 0.00 0.00 0.00 0.00 0.00 0.00 0.00 0.02 0.05 0.12 0.08 0.14
0.10 0.09 0.07 0.06 0.05 0.06 0.06 0.06 0.10 0.19 0.27 0.16 0.07 0.21 0.23 0.31 0.46 0.33 0.08 0.03 0.01 0.00 0.00 0.00 0.00 0.00 0.00 0.00 0.00 0.02 0.01 0.01 0.00 0.00 0.00 0.00 0.01 0.00 0.00 0.00 0.00 0.00 0.01 0.05 0.25 0.17 0.30
0.12 0.10 0.09 0.06 0.06 0.05 0.07 0.09 0.13 0.23 0.20 0.08 0.14 0.40 0.41 0.29 0.26 0.15 0.03 0.02 0.02 0.01 0.01 0.01 0.00 0.00 0.00 0.00 0.01 0.01 0.00 0.00 0.00 0.00 0.00 0.00 0.02 0.02 0.01 0.02 0.01 0.00 0.02 0.03 0.14 0.23 0.20
0.09 0.11 0.10 0.08 0.08 0.09 0.08 0.11 0.17 0.25 0.28 0.06 0.12 0.43 0.88 0.70 0.10 0.03 0.03 0.02 0.02 0.01 0.01 0.01 0.01 0.00 0.00 0.00 0.00 0.00 0.00 0.00 0.00 0.00 0.00 0.00 0.01 0.02 0.08 0.13 0.10 0.06 0.03 0.05 0.17 0.27 0.17
0.18 0.11 0.11 0.11 0.09 0.08 0.13 0.16 0.17 0.27 0.36 0.18 0.09 0.10 0.22 0.35 0.12 0.02 0.02 0.02 0.02 0.01 0.01 0.01 0.01 0.02 0.01 0.01 0.00 0.00 0.00 0.00 0.00 0.00 0.00 0.00 0.01 0.01 0.02 0.05 0.05 0.04 0.03 0.02 0.04 0.06 0.12
0.22 0.23 0.16 0.13 0.16 0.18 0.14 0.16 0.18 0.22 0.42 0.34 0.15 0.05 0.02 0.00 0.01 0.02 0.02 0.02 0.02 0.01 0.01 0.01 0.02 0.01 0.02 0.02 0.01 0.01 0.00 0.00 0.00 0.00 0.00 0.01 0.02 0.02 0.01 0.04 0.03 0.03 0.04 0.02 0.01 0.02 0.01
0.24 0.20 0.23 0.17 0.18 0.20 0.26 0.21 0.20 0.24 0.39 0.54 0.16 0.01 0.02 0.02 0.02 0.04 0.02 0.01 0.01 0.01 0.01 0.01 0.02 0.03 0.02 0.01 0.01 0.00 0.00 0.00 0.00 0.00 0.00 0.01 0.02 0.03 0.02 0.05 0.06 0.11 0.03 0.04 0.03 0.02 0.02
0.38 0.32 0.26 0.25 0.20 0.20 0.25 0.32 0.29 0.24 0.20 0.29 0.23 0.03 0.04 0.07 0.02 0.01 0.00 0.01 0.01 0.01 0.02 0.01 0.02 0.02 0.01 0.01 0.00 0.00 0.00 0.00 0.00 0.00 0.00 0.02 0.03 0.05 0.05 0.12 0.21 0.07 0.01 0.01 0.00 0.00 0.01
0.43 0.43 0.26 0.31 0.29 0.27 0.24 0.33 0.57 0.34 0.19 0.15 0.32 0.17 0.05 0.05 0.01 0.02 0.02 0.02 0.01 0.01 0.02 0.02 0.02 0.04 0.02 0.01 0.02 0.03 0.01 0.01 0.00 0.00 0.00 0.00 0.03 0.13 0.14 0.14 0.12 0.05 0.01 0.00 0.00 0.01 0.01
0.51 0.53 0.32 0.29 0.33 0.38 0.38 0.40 0.58 0.59 0.27 0.15 0.12 0.40 0.20 0.10 0.06 0.01 0.01 0.01 0.01 0.02 0.03 0.02 0.03 0.02 0.00 0.01 0.05 0.06 0.02 0.01 0.01 0.03 0.02 0.01 0.02 0.10 0.19 0.27 0.18 0.07 0.02 0.02 0.02 0.05 0.00
0.98 0.74 0.42 0.40 0.39 0.45 0.46 0.41 0.39 0.62 0.38 0.19 0.06 0.16 0.69 0.33 0.04 0.02 0.04 0.02 0.02 0.03 0.01 0.00 0.00 0.01 0.01 0.05 0.09 0.03 0.01 0.00 0.01 0.03 0.05 0.04 0.05 0.12 0.12 0.22 0.10 0.03 0.05 0.06 0.12 0.09 0.00
1.07 0.87 0.52 0.44 0.42 0.40 0.39 0.35 0.35 0.52 0.54 0.34 0.14 0.04 0.38 0.55 0.13 0.03 0.01 0.03 0.02 0.02 0.02 0.01 0.04 0.03 0.03 0.07 0.07 0.02 0.00 0.00 0.02 0.03 0.01 0.02 0.03 0.05 0.07 0.16 0.12 0.04 0.13 0.14 0.05 0.00 0.00
0.77 0.80 0.53 0.42 0.41 0.35 0.26 0.27 0.45 0.50 0.53 0.44 0.31 0.06 0.12 0.40 0.28 0.06 0.01 0.00 0.01 0.02 0.03 0.03 0.02 0.01 0.03 0.02 0.01 0.00 0.00 0.00 0.02 0.08 0.06 0.07 0.02 0.04 0.04 0.07 0.05 0.08 0.12 0.07 0.02 0.02 0.01